GFSSW_sfc_thetae_069.txt.gz
Theta_e
323 323 323 322 321 320 319 319 318 317 317 317 318 318 319 318 315 311 305 312 314 321 320 311 309 309 307 302 302 299 297 293 294 293 297 311 311 315 317 314 319 321 320 326 331
325 324 324 322 320 319 319 318 317 317 317 317 318 318 318 317 310 306 316 321 323 322 310 307 304 305 304 302 301 299 295 295 298 298 304 310 311 311 312 312 315 318 325 329 329
324 324 323 322 321 320 319 318 317 317 317 317 317 318 317 315 304 307 325 323 323 322 312 308 306 304 301 302 300 297 297 297 298 301 310 308 309 312 310 308 313 316 322 326 326
319 321 323 322 321 320 318 317 317 317 317 317 317 318 316 312 294 308 328 327 325 316 310 306 304 303 301 299 300 296 298 298 302 310 308 307 311 309 309 312 318 322 324 324 323
317 317 320 322 321 319 318 317 317 317 316 316 316 317 312 300 300 312 326 327 317 312 307 305 304 303 300 300 299 296 301 306 307 309 309 310 307 308 312 319 320 323 323 322 322
316 316 317 320 320 319 318 317 316 316 316 315 316 316 306 294 306 313 313 312 312 309 307 306 305 305 302 301 301 303 305 307 309 309 309 305 306 307 313 318 318 319 318 319 320
315 315 316 317 319 319 318 317 315 315 315 315 315 313 304 300 308 309 310 311 312 310 307 306 307 305 305 302 306 306 303 304 306 307 306 307 303 306 315 317 317 317 317 319 320
315 315 314 314 316 317 316 315 314 315 315 315 315 310 298 308 310 310 312 312 313 311 309 310 309 306 305 305 302 301 300 298 302 305 305 305 298 308 316 314 314 316 316 317 319
313 314 313 313 313 315 315 314 314 315 315 315 308 304 298 311 304 309 313 309 310 311 310 310 309 304 304 299 297 296 293 295 298 304 303 302 299 307 315 313 309 314 316 316 317
313 313 313 313 312 313 312 313 314 312 313 313 310 301 303 301 307 311 313 312 309 309 307 306 304 300 298 297 291 293 293 294 295 300 302 300 300 306 311 314 311 313 315 316 316
310 312 313 312 312 313 310 308 299 302 307 303 301 300 300 306 311 309 310 309 309 306 300 302 299 297 298 298 297 297 296 295 297 300 298 298 299 304 309 312 312 313 313 315 316
311 312 312 312 312 313 309 304 301 305 298 305 304 304 307 309 304 307 309 304 303 298 301 299 296 299 299 299 298 298 296 295 298 299 298 297 298 302 307 310 312 313 314 314 316
310 311 311 312 312 311 309 306 309 310 299 303 304 302 303 306 302 303 305 304 301 297 298 296 298 300 300 299 297 297 295 295 295 297 298 296 295 297 303 308 312 314 316 317 316
309 310 310 310 308 308 305 310 310 310 292 293 299 303 306 306 300 308 306 305 301 298 298 298 300 299 298 297 298 294 299 297 296 294 291 295 289 294 299 303 307 311 314 316 318
308 309 309 311 308 304 308 312 311 307 279 295 301 310 307 301 301 303 306 305 299 298 299 296 297 297 296 297 299 297 299 298 297 294 293 292 291 295 298 298 303 308 311 315 318
308 308 309 309 310 310 313 314 311 294 281 292 302 300 300 301 299 301 303 305 304 300 300 298 301 301 300 300 300 300 298 296 295 294 289 291 291 293 296 299 303 306 310 313 316
307 308 308 311 303 312 313 307 293 285 295 292 297 299 297 296 295 298 297 297 295 292 292 295 297 300 302 298 300 298 295 289 287 287 287 293 291 295 299 300 301 304 308 312 315
307 306 307 309 310 312 309 298 286 291 291 298 297 297 293 294 295 296 294 294 295 295 291 291 289 297 300 299 297 296 295 290 282 283 287 291 289 295 301 303 304 305 305 309 312
306 303 302 306 310 309 301 289 288 292 296 294 295 293 292 293 294 295 294 294 296 296 292 289 290 299 301 301 300 296 293 296 289 288 287 290 293 298 299 301 304 306 309 306 309
299 298 298 307 310 306 296 289 293 298 300 300 293 294 291 291 291 293 292 295 295 297 299 295 290 297 300 301 300 299 300 292 291 283 282 287 287 291 297 299 302 305 308 308 307
297 292 300 309 309 297 288 290 295 300 301 297 296 295 292 291 293 291 292 295 298 296 298 296 294 292 298 297 296 296 294 293 293 290 286 284 289 297 298 300 301 304 307 309 310
295 285 302 307 291 293 289 293 296 297 301 299 299 298 297 294 292 292 292 296 298 298 294 298 294 289 293 298 299 298 296 296 291 287 288 287 288 299 300 300 300 303 305 308 312
291 290 302 301 285 287 292 293 296 295 297 297 296 298 301 297 290 293 294 299 297 298 297 298 292 287 289 293 298 296 295 295 293 291 288 288 290 298 299 300 302 302 305 306 310
291 284 293 295 294 290 289 290 291 297 297 298 297 299 298 296 297 294 294 299 299 299 300 300 293 291 287 290 294 292 294 294 295 289 290 290 293 297 299 299 301 302 303 303 308
292 288 292 285 287 289 291 291 290 291 297 298 295 297 296 292 294 293 297 299 300 300 299 300 292 292 292 292 294 294 294 293 293 294 291 294 291 296 299 301 301 301 300 300 303
288 289 292 292 291 288 290 290 290 293 294 293 294 295 296 294 296 293 297 298 298 298 298 297 293 292 291 292 293 292 293 293 293 293 293 292 292 298 300 300 298 298 299 299 301
294 294 291 290 290 287 287 290 292 295 296 297 296 296 294 296 300 300 302 301 301 299 296 294 292 290 288 290 291 287 292 293 294 295 295 291 297 298 297 297 298 299 299 302 304

GFSSW_sfc_thetae_072.txt.gz
Theta_e
325 325 324 323 322 321 320 320 318 318 318 318 318 318 319 319 316 316 312 315 315 322 319 316 316 314 311 307 309 309 301 298 298 300 302 311 312 318 321 318 321 324 323 330 333
322 323 324 324 322 321 320 319 318 318 318 318 317 318 318 317 315 311 318 321 323 324 315 311 309 312 311 307 308 305 301 299 303 304 303 309 313 315 315 315 317 321 326 333 331
318 319 320 323 323 321 320 319 318 318 318 318 317 318 317 318 310 312 325 323 324 321 316 313 310 310 307 309 307 306 301 304 305 306 307 309 312 315 313 311 315 317 324 327 329
316 317 318 319 322 321 320 318 318 319 318 318 318 317 317 316 298 316 328 326 325 321 314 311 308 306 306 304 307 303 305 305 306 311 311 311 314 312 314 316 322 322 326 326 325
315 316 317 317 320 321 319 318 318 318 318 318 317 317 315 306 306 314 329 327 320 316 312 310 308 308 304 306 306 304 305 311 309 312 313 312 310 311 314 321 323 323 325 323 323
314 315 316 316 317 318 319 318 317 317 317 317 317 316 310 300 311 319 320 318 316 315 312 311 310 311 308 306 306 309 310 311 313 313 312 309 310 312 316 319 319 320 320 322 322
313 314 315 315 315 316 317 317 317 317 317 317 316 315 307 305 312 318 316 315 317 316 311 312 312 310 310 306 311 311 307 310 311 311 309 312 308 308 317 319 318 318 318 318 321
312 313 313 314 313 313 314 315 316 316 317 316 316 314 303 313 315 312 314 316 317 317 314 316 314 312 310 310 308 306 307 301 308 309 309 309 301 311 317 317 315 318 319 317 319
310 311 312 312 312 312 313 314 315 316 315 315 314 310 302 313 309 313 313 311 315 316 316 314 314 310 309 304 303 304 297 298 301 308 307 306 302 312 316 313 312 316 316 318 319
311 310 311 312 312 312 312 313 316 313 314 315 314 305 308 305 310 314 317 313 312 313 311 310 310 306 305 302 294 296 297 298 299 304 305 304 303 310 315 313 313 313 316 318 319
311 311 311 311 312 312 314 318 310 307 310 306 306 304 305 311 315 313 316 314 312 311 305 308 303 300 302 303 303 301 299 298 301 304 303 302 303 307 314 314 312 313 314 318 318
310 310 310 311 312 312 315 310 310 309 301 307 307 308 311 312 306 312 315 308 307 303 306 303 300 304 304 304 302 301 299 299 302 303 302 303 302 306 312 314 315 315 315 316 319
309 309 310 310 311 311 312 312 316 313 303 304 308 306 306 309 304 307 311 308 304 303 303 300 302 305 303 302 300 301 299 299 298 302 304 302 300 303 308 313 315 317 318 319 318
309 309 308 309 306 312 310 316 319 316 296 295 300 305 307 307 302 310 313 308 305 301 303 302 305 302 302 300 302 298 303 302 300 299 295 301 292 300 305 307 311 315 318 319 320
308 308 308 308 307 308 313 320 317 313 282 297 301 312 309 302 303 304 313 308 302 302 303 300 301 301 300 301 303 300 303 302 301 300 298 298 295 299 303 302 306 312 316 320 322
307 308 308 307 309 312 318 319 316 297 282 293 303 302 301 302 302 306 306 309 309 303 304 303 306 305 303 305 305 304 302 302 302 300 292 297 296 298 300 302 305 309 312 318 321
306 307 307 307 304 314 315 312 295 288 296 292 298 301 300 298 299 301 301 301 299 296 296 300 301 304 305 302 304 303 300 293 291 291 290 298 295 298 303 305 307 308 310 315 320
305 306 306 306 311 313 310 300 287 290 293 299 298 300 297 298 298 300 299 298 302 301 297 295 292 301 305 302 300 301 300 294 285 288 291 296 292 298 305 308 309 311 312 313 316
306 304 302 305 310 310 302 288 288 292 296 295 296 296 295 296 297 298 299 298 301 303 296 295 294 302 304 305 304 301 297 301 294 295 292 294 298 302 304 304 308 310 312 314 314
301 300 299 306 310 303 292 290 292 298 299 300 290 296 294 293 294 296 297 301 300 304 305 299 293 300 303 305 304 303 305 295 297 286 285 291 293 295 299 302 306 306 308 314 314
300 292 301 307 306 295 286 290 294 300 302 298 298 295 295 296 295 295 296 298 303 302 305 302 299 298 302 300 299 300 299 299 298 296 289 287 293 302 301 303 305 307 310 312 316
296 286 303 308 288 291 288 293 296 297 303 301 301 301 299 297 295 295 295 299 304 304 299 303 300 294 297 303 305 304 301 301 293 292 295 293 292 305 306 307 307 308 310 312 314
291 291 305 303 283 285 292 293 296 297 297 299 299 300 302 299 294 297 298 303 303 303 301 303 297 292 293 298 301 299 301 302 300 298 293 291 293 305 306 306 308 309 309 312 313
292 284 293 294 295 290 289 291 291 297 298 300 300 301 299 297 301 296 296 300 302 304 303 304 300 295 291 294 298 296 298 300 299 294 293 294 296 301 304 305 307 308 310 311 311
293 288 293 284 287 291 292 291 290 291 297 299 298 299 298 294 296 296 297 300 300 300 303 303 296 298 298 298 298 297 297 298 297 297 294 297 297 300 304 306 308 309 308 307 308
288 292 295 293 293 290 290 289 290 292 294 293 295 298 300 297 297 294 297 298 299 302 302 303 296 298 296 298 298 296 298 298 299 299 299 299 298 305 307 308 307 307 306 306 306
299 299 296 292 292 287 288 290 291 295 297 298 298 297 297 299 303 302 303 303 303 301 300 300 298 296 291 296 296 291 297 298 299 301 301 296 301 305 304 305 306 307 306 307 308

GFSSW_sfc_thetae_075.txt.gz
Theta_e
322 322 323 324 324 323 322 321 320 319 320 320 319 319 319 318 317 319 316 316 316 322 318 318 317 316 314 311 310 311 302 298 299 301 301 310 310 320 321 318 320 324 325 330 335
319 319 319 320 321 322 322 321 320 319 320 320 319 319 318 317 317 314 318 323 323 323 316 313 311 314 311 309 310 307 303 301 305 306 305 307 310 313 314 315 316 320 328 333 333
315 315 316 318 319 320 322 321 320 320 320 320 319 319 317 317 314 314 326 323 324 322 319 316 313 312 309 311 309 308 302 306 306 308 310 308 311 315 313 309 316 316 323 330 331
314 315 314 316 317 318 319 319 320 320 320 320 320 319 317 318 301 319 329 325 325 320 318 313 311 308 307 306 310 304 307 307 308 310 312 310 314 312 313 315 321 322 325 329 328
314 314 315 315 316 316 317 318 319 319 319 320 319 318 317 309 309 319 328 327 319 318 314 311 309 309 306 307 308 306 306 308 312 311 314 313 310 311 312 320 325 325 325 326 325
313 314 314 315 315 315 315 315 317 318 318 319 319 317 315 303 315 318 320 324 320 317 314 314 312 313 309 308 307 310 309 310 312 313 313 310 310 312 318 321 321 322 323 323 321
312 312 313 314 314 314 314 314 314 316 318 318 318 317 311 309 316 317 318 319 320 317 313 316 315 312 312 307 311 312 306 309 310 311 310 312 305 302 317 319 319 319 320 319 321
312 311 312 312 313 313 313 313 313 315 317 318 316 316 308 316 318 315 316 319 321 320 318 318 318 314 311 313 309 307 307 301 306 310 311 309 298 306 318 316 315 318 318 318 319
311 311 310 311 311 312 312 312 313 315 317 316 316 314 305 314 310 314 315 313 318 319 319 318 316 311 312 304 302 305 298 300 303 308 307 307 303 311 317 315 314 316 314 317 318
311 311 310 311 311 311 311 311 315 315 316 318 316 307 309 306 312 313 315 314 315 315 313 313 311 307 307 303 294 298 299 300 299 304 306 303 303 309 315 313 313 315 315 311 313
312 311 310 310 310 311 311 314 311 311 313 306 307 305 307 310 315 313 314 312 314 312 305 310 304 301 304 305 304 303 301 299 302 306 303 303 304 305 314 314 313 312 316 313 313
310 311 310 310 310 311 312 307 308 313 302 307 307 308 312 312 307 311 316 308 308 304 308 306 301 306 307 305 303 302 300 300 304 305 304 303 303 306 311 313 315 315 314 317 317
310 309 309 309 310 309 309 310 317 317 304 303 308 306 306 308 305 308 312 310 306 304 304 302 304 307 304 302 301 302 300 301 301 304 306 303 301 304 309 314 315 317 317 318 318
309 308 307 308 304 310 309 316 320 320 297 297 303 308 308 307 302 311 314 309 306 302 304 304 307 304 303 301 303 299 305 303 302 300 294 304 292 301 305 308 312 315 317 317 318
308 308 307 306 305 307 315 321 323 317 283 300 302 313 308 303 303 304 312 309 303 303 304 301 303 303 301 302 305 301 305 303 303 301 300 299 295 299 304 303 307 312 317 318 319
307 308 308 304 305 307 311 318 317 295 283 296 304 302 303 303 302 306 306 311 309 304 305 304 308 306 305 306 306 306 303 303 303 301 293 297 297 296 300 302 305 310 314 318 320
307 307 306 305 301 313 313 307 293 285 296 294 298 303 302 299 298 302 301 302 299 296 297 301 303 306 307 303 306 305 301 294 292 292 291 300 296 299 304 306 307 308 311 315 319
307 306 305 304 308 308 305 296 285 291 292 301 300 303 298 300 298 300 300 298 303 301 299 295 293 302 306 304 302 302 301 295 287 289 292 299 293 298 306 308 308 309 312 314 316
306 306 303 305 309 307 296 287 289 292 296 295 299 296 298 300 297 298 299 298 301 303 297 296 296 305 306 306 306 302 298 304 297 297 293 296 299 304 306 305 306 309 311 314 316
304 300 299 307 311 303 290 287 292 297 297 298 293 297 295 297 294 296 297 301 300 304 306 301 295 302 304 306 306 304 306 297 298 288 287 293 295 296 301 303 306 307 309 313 316
300 293 302 308 307 295 284 289 295 299 299 296 296 295 296 298 295 294 296 300 303 303 305 303 300 299 303 300 300 301 300 301 300 297 290 289 293 303 302 304 305 307 309 310 314
296 287 305 307 289 290 285 292 296 297 300 299 300 300 297 298 297 294 295 300 304 305 301 304 301 296 298 304 306 304 301 301 295 293 296 295 295 307 307 307 308 308 309 311 314
290 291 305 305 284 285 291 292 294 295 296 298 299 301 304 298 295 298 298 303 304 304 302 304 298 292 295 300 303 300 303 303 302 301 295 293 295 306 307 307 308 309 310 310 313
290 285 295 295 296 291 288 289 290 296 296 298 300 301 299 298 301 297 298 301 305 304 304 306 300 296 292 296 300 297 299 301 300 297 296 296 297 302 303 305 308 309 311 311 311
292 290 294 284 287 292 292 291 289 290 296 298 296 299 298 294 295 296 300 300 301 301 304 304 297 298 299 300 300 299 298 299 297 299 295 297 298 301 303 306 307 310 311 310 310
288 291 294 293 293 291 291 290 290 292 293 293 295 297 299 295 297 293 297 299 298 302 302 305 298 299 296 299 299 296 298 299 299 299 299 299 298 306 308 308 307 308 309 309 310
297 300 296 292 292 289 291 291 291 294 296 297 297 297 297 299 304 304 304 302 302 300 302 302 301 297 293 298 298 294 297 298 300 301 300 297 302 306 305 306 307 307 308 309 310

GFSSW_sfc_thetae_078.txt.gz
Theta_e
318 318 318 319 320 320 321 322 321 321 321 321 321 321 321 320 317 316 312 319 321 324 316 318 316 316 315 311 311 310 299 297 300 300 302 308 307 312 319 315 315 317 316 324 334
315 315 316 316 318 319 319 320 321 320 321 321 321 321 320 319 315 312 322 325 324 324 314 314 311 313 309 309 308 305 300 301 306 305 304 306 307 309 311 311 310 310 324 332 333
314 315 315 315 316 318 317 318 319 320 321 320 320 320 319 318 312 314 324 325 323 321 315 316 314 311 307 309 308 306 301 305 306 307 308 307 310 313 310 308 309 309 319 328 329
313 314 314 314 315 316 316 315 317 319 320 320 320 320 319 318 301 318 327 325 325 315 314 314 310 306 305 304 309 303 306 306 307 308 308 307 311 310 311 315 319 322 327 327 325
313 312 312 313 314 315 315 315 315 316 317 319 320 320 318 310 309 320 330 325 316 313 313 312 308 307 303 306 308 305 306 307 308 309 308 312 308 310 311 318 322 324 325 324 322
312 313 312 313 314 314 314 314 314 314 315 318 319 318 314 303 319 319 318 321 316 315 313 312 309 312 308 307 305 307 307 308 308 309 311 309 309 311 308 316 320 321 321 321 320
312 312 312 312 312 313 313 313 313 313 314 316 318 318 310 306 318 318 317 317 320 318 312 314 315 310 310 307 311 309 304 307 308 309 308 311 305 304 310 312 316 318 319 320 319
312 312 311 310 311 311 312 312 312 313 314 316 318 315 304 314 318 317 317 314 319 319 316 317 317 312 310 311 308 304 304 299 307 307 309 308 298 306 309 312 314 316 317 319 318
311 311 311 310 310 310 311 311 311 312 314 317 315 313 303 316 311 315 315 311 316 317 318 317 315 310 309 304 301 302 296 299 302 309 307 306 301 307 310 312 314 311 315 317 315
311 311 311 310 310 309 310 310 312 315 317 318 315 305 308 304 312 313 314 312 312 314 312 310 308 304 304 301 293 296 298 301 300 305 306 303 302 309 312 312 313 310 313 313 313
310 311 311 310 310 309 308 308 305 308 314 308 307 303 307 312 313 311 313 309 310 310 303 307 302 298 301 304 304 302 300 298 302 306 304 303 301 305 311 311 311 309 308 311 312
310 311 310 310 309 310 307 302 305 312 301 305 304 305 308 311 307 310 314 304 304 301 306 303 299 304 306 306 303 301 299 298 302 305 304 302 301 306 309 310 312 313 309 310 315
309 310 309 308 308 306 305 305 313 313 301 301 304 303 303 306 303 306 310 305 302 301 302 300 303 307 304 303 301 300 299 299 300 303 305 302 299 302 307 311 314 314 316 313 314
309 309 308 307 302 308 308 314 316 319 295 293 299 305 305 306 300 307 312 307 303 299 301 302 306 304 303 301 302 297 304 303 300 299 294 302 291 300 304 306 310 313 313 315 315
309 309 308 305 303 302 308 311 312 315 280 298 302 313 309 302 303 303 310 308 301 301 303 300 301 301 300 301 304 300 305 303 302 299 298 298 295 298 304 302 306 311 315 315 317
309 309 308 304 303 305 308 309 308 293 281 294 303 301 301 303 302 305 303 308 307 302 303 302 307 305 303 305 305 306 303 303 302 299 292 297 296 295 298 302 305 310 314 316 317
309 308 306 305 299 309 309 305 290 283 294 291 298 301 299 299 299 301 299 299 298 292 294 300 301 305 306 301 305 303 299 292 290 291 290 299 296 299 303 306 307 307 311 316 318
308 307 306 305 306 308 304 294 283 288 289 299 299 300 297 300 300 299 298 295 301 299 295 294 292 301 305 303 300 301 299 294 286 285 291 299 293 297 306 308 309 309 311 315 317
307 306 304 306 307 307 294 282 285 289 293 292 297 295 297 300 299 298 297 297 299 300 294 294 294 303 305 305 304 301 297 303 296 297 293 296 298 304 306 305 306 307 309 312 314
304 301 301 308 311 303 289 284 289 295 295 296 290 296 295 298 297 297 296 300 298 302 303 300 295 302 303 305 305 302 305 296 297 288 286 292 294 293 300 302 305 306 309 313 317
299 292 301 308 307 294 283 286 290 295 297 293 292 293 294 294 299 296 296 299 301 301 303 302 299 298 302 299 298 299 298 301 300 296 290 288 292 302 302 304 305 308 310 311 316
296 286 301 306 289 290 285 290 293 292 296 296 297 295 295 297 297 297 295 299 304 303 299 302 300 294 297 303 305 302 300 300 294 292 297 295 294 306 308 308 308 309 310 312 313
291 291 304 303 283 285 290 290 292 291 292 294 294 296 299 297 295 299 299 303 303 301 300 302 297 291 294 299 302 299 301 301 301 300 294 291 293 307 307 307 309 309 309 310 312
289 284 294 295 295 290 287 287 288 293 293 295 296 297 294 297 300 297 298 302 306 303 302 304 300 296 291 295 299 296 298 300 301 294 295 296 297 301 303 304 306 309 310 310 311
287 288 293 285 287 290 291 289 287 287 293 295 293 294 292 292 295 296 299 300 302 304 302 303 295 299 298 299 299 298 298 298 297 298 294 297 297 301 304 304 308 309 310 311 310
285 289 294 291 292 289 290 289 288 290 290 289 291 294 296 293 296 294 297 297 296 302 302 303 296 298 296 298 298 296 299 299 298 298 297 298 298 304 306 307 307 307 307 307 310
295 298 295 291 290 289 288 290 290 292 293 294 294 294 294 295 301 304 304 303 303 299 297 300 298 296 291 297 296 290 297 298 298 300 299 295 301 305 304 305 306 308 309 308 309

GFSSW_sfc_thetae_081.txt.gz
Theta_e
317 316 316 317 316 317 318 318 318 319 321 321 321 321 321 320 318 316 307 316 318 325 319 313 308 307 306 304 304 301 290 288 292 296 297 305 306 308 315 312 313 315 312 318 330
314 314 314 315 316 316 317 317 316 317 319 320 320 320 320 319 315 311 318 325 324 325 310 308 308 308 302 302 301 295 289 292 300 299 298 303 308 305 309 311 310 312 317 320 329
313 313 313 314 315 316 316 315 315 316 317 318 319 320 319 317 310 311 323 326 326 322 309 309 310 307 300 300 301 298 293 299 301 302 302 301 306 312 309 309 312 310 317 326 326
313 313 313 313 314 315 315 314 315 315 315 316 318 319 318 315 296 312 325 326 324 312 309 308 307 301 298 297 302 296 301 301 301 303 304 300 305 309 311 312 318 323 323 323 323
311 312 313 312 313 313 313 313 314 314 314 315 316 318 313 306 307 319 327 324 313 310 308 307 305 302 298 299 301 301 301 304 305 307 306 307 305 308 305 314 320 323 323 321 321
312 311 312 312 312 312 312 312 312 313 313 314 315 318 310 298 312 316 320 316 312 308 307 307 306 306 302 302 300 303 303 302 304 305 306 307 306 306 307 313 319 321 319 320 320
312 312 312 312 311 312 311 312 311 312 313 313 314 314 308 302 309 308 311 310 316 313 309 310 310 304 305 302 306 305 299 301 304 305 303 305 300 302 309 311 315 318 317 317 318
312 311 311 310 311 311 311 310 310 311 312 313 314 312 302 313 310 311 311 310 313 316 315 314 312 308 305 306 304 300 298 292 302 305 306 303 295 307 307 311 310 314 316 315 316
311 311 311 310 310 310 310 310 309 311 313 314 310 307 302 315 309 310 311 308 311 311 312 315 309 304 304 298 294 296 290 293 299 306 304 301 297 305 309 309 309 311 313 313 314
311 311 310 310 309 309 308 309 309 310 310 314 314 302 309 305 308 310 310 310 307 309 308 307 302 298 297 294 288 291 293 298 298 301 303 300 298 303 306 309 307 310 309 311 312
310 310 310 310 309 308 306 301 299 301 307 305 304 302 304 311 314 307 309 306 305 301 299 303 296 293 295 298 300 299 297 295 298 304 301 299 297 304 307 308 306 306 309 309 310
310 310 310 310 309 308 303 296 301 303 294 307 308 308 311 312 303 306 310 301 299 294 300 299 295 300 302 301 300 300 296 293 298 303 301 297 296 302 307 306 305 304 305 307 310
310 310 309 309 308 302 299 299 307 306 295 300 304 302 301 302 297 298 305 303 297 294 296 296 299 304 302 300 299 298 294 295 295 299 299 297 294 298 304 308 306 306 309 311 311
310 309 309 307 299 299 300 305 306 306 291 292 296 299 302 302 297 302 305 304 298 294 296 297 303 302 300 299 299 294 300 300 299 294 288 296 286 294 301 305 306 305 307 310 311
308 309 308 307 297 293 301 308 308 309 276 293 296 306 303 297 299 299 305 302 297 296 296 295 297 299 298 299 301 297 302 301 300 294 291 293 290 293 299 299 305 307 306 309 312
307 309 308 302 299 298 302 309 306 290 278 291 301 300 299 296 298 301 299 302 302 298 298 297 303 301 300 303 302 304 300 299 298 294 286 293 294 290 293 300 303 309 310 309 312
307 308 306 304 294 301 303 301 287 280 291 287 293 299 298 296 295 298 296 293 291 290 291 296 297 301 303 299 301 299 294 286 285 285 284 297 294 294 300 302 304 309 310 311 312
307 307 305 303 303 300 299 292 281 287 287 293 293 295 294 296 296 297 294 291 295 295 291 289 287 296 302 299 296 296 295 287 282 281 287 297 290 294 302 305 303 304 311 312 313
306 301 299 301 303 299 292 281 280 286 291 289 290 287 288 296 297 295 293 293 295 296 291 289 290 300 301 303 301 297 292 298 292 294 289 292 295 302 304 302 301 301 303 309 312
300 298 296 303 303 297 288 281 285 291 292 291 285 289 286 292 294 293 293 297 296 298 300 296 290 299 300 302 301 299 301 292 292 284 283 290 291 292 297 299 301 300 303 307 308
299 292 299 304 302 292 280 282 286 291 292 289 287 287 289 288 290 294 295 297 298 298 300 297 294 294 299 297 296 296 295 298 297 292 283 281 286 298 298 300 300 301 303 305 308
295 285 301 303 288 288 283 285 290 289 293 291 290 289 288 291 289 289 294 297 300 299 295 298 296 290 292 300 302 300 296 296 289 289 291 288 287 301 301 301 302 302 304 303 304
289 290 300 300 282 283 287 287 289 288 289 289 288 291 292 290 288 292 296 303 299 298 296 297 293 287 290 295 300 297 297 298 297 294 289 284 288 303 303 303 303 301 302 304 305
286 283 291 294 291 287 285 285 285 291 289 291 290 291 289 287 293 290 293 301 301 302 301 300 294 291 286 291 296 293 296 297 295 287 289 289 293 298 300 299 301 301 303 303 305
287 285 290 283 287 287 288 287 285 285 290 291 288 288 288 286 290 290 296 294 300 301 302 299 291 293 295 296 297 297 296 296 294 295 292 294 295 298 299 299 300 303 304 305 305
284 286 291 288 289 288 287 286 286 287 288 287 286 288 290 288 290 290 293 292 294 299 299 299 290 294 292 296 297 295 296 296 296 296 295 294 294 299 301 299 301 302 304 303 304
294 295 292 289 288 286 286 285 287 290 290 291 290 288 287 289 295 298 301 300 298 298 294 295 292 292 287 294 294 286 293 295 297 298 296 291 295 299 298 300 299 301 302 303 304

GFSSW_sfc_thetae_084.txt.gz
Theta_e
315 314 315 315 316 316 316 316 316 316 316 317 318 319 320 319 317 314 306 313 317 324 321 309 305 304 303 300 301 298 290 286 289 290 295 302 303 310 313 310 313 316 312 317 327
313 312 313 313 314 314 315 315 314 315 316 316 316 317 318 318 313 309 317 324 326 326 309 306 305 305 300 299 299 295 287 291 296 297 298 301 307 306 309 310 310 314 317 318 323
312 312 312 312 314 314 314 314 314 314 315 315 315 316 316 316 308 308 325 326 327 324 307 307 307 305 298 297 296 294 292 298 299 299 301 300 306 311 308 305 312 311 316 319 326
312 312 313 313 313 313 313 312 313 313 313 314 314 315 316 313 289 310 324 323 324 311 307 305 304 300 296 294 297 293 299 299 299 303 303 298 306 309 308 310 321 321 323 324 322
312 312 312 312 313 312 312 312 312 312 312 312 313 315 312 304 306 313 326 323 314 307 304 304 302 301 296 296 298 298 299 302 304 305 304 307 304 306 308 313 322 322 322 320 319
312 312 312 312 311 312 312 311 311 311 312 312 313 314 309 296 309 311 320 315 309 305 304 305 304 305 300 299 297 301 301 301 301 302 303 304 304 304 305 315 320 318 317 319 320
312 312 312 311 311 311 311 311 311 311 311 311 312 310 304 298 307 304 307 308 311 309 305 307 306 303 302 300 304 302 297 298 300 300 301 304 298 300 306 311 317 316 316 315 316
312 311 311 311 311 311 311 310 310 310 311 311 312 310 299 311 309 309 309 307 310 311 310 311 310 305 303 304 302 298 296 290 297 302 304 302 293 303 306 310 311 314 313 313 317
312 311 311 310 310 310 309 309 309 310 311 312 307 306 298 314 308 311 308 305 309 310 310 315 309 303 302 296 292 293 289 291 295 303 301 300 295 302 304 309 310 311 312 312 313
311 311 311 310 309 309 308 307 307 309 308 311 312 300 304 301 307 310 308 308 306 306 304 304 300 296 294 292 287 289 290 294 294 298 300 297 297 299 303 306 308 309 310 310 311
311 311 310 310 309 308 305 299 298 298 302 302 303 302 302 308 313 309 308 306 304 301 296 301 294 292 293 295 297 296 294 293 296 301 299 297 297 300 303 307 307 308 309 309 310
310 311 310 310 309 308 302 296 300 301 294 303 302 302 309 310 305 308 308 299 298 294 298 297 293 299 299 298 297 296 294 293 296 299 298 297 295 298 304 306 308 307 307 308 309
309 309 310 309 308 301 298 299 306 305 295 298 301 300 303 305 301 303 303 301 296 294 294 292 297 302 299 298 296 296 294 294 293 296 297 294 292 296 303 306 307 307 308 309 309
308 308 309 308 297 296 294 301 304 306 289 292 297 298 301 301 294 302 302 298 298 294 294 293 298 299 298 297 298 293 299 298 296 293 287 294 285 292 298 301 303 303 305 308 309
307 307 308 307 296 293 296 300 303 306 272 290 294 303 301 296 297 296 300 296 294 294 294 292 295 296 296 297 300 296 301 298 298 293 289 291 287 291 299 299 300 302 305 308 310
307 307 307 302 297 298 300 301 304 286 275 288 296 295 294 296 295 298 295 298 299 296 295 293 298 298 298 301 301 302 298 297 296 292 285 292 291 289 292 299 302 303 306 308 309
306 307 305 304 292 299 300 297 286 279 290 286 290 296 295 291 292 294 293 290 289 287 289 292 293 297 299 295 298 298 292 284 284 284 283 295 292 293 298 299 305 305 305 309 310
306 306 303 303 299 298 295 287 278 286 285 292 291 291 287 289 294 292 290 288 291 290 289 287 285 294 299 296 294 294 293 285 282 281 285 295 288 293 301 302 303 309 309 308 311
305 297 296 298 301 297 291 277 278 283 290 288 288 286 286 291 291 292 291 290 292 292 288 287 288 296 299 299 298 294 290 296 290 292 286 290 294 299 300 300 301 303 308 308 308
299 297 296 300 300 294 285 279 282 287 288 288 282 287 284 287 287 289 289 295 294 295 296 293 287 296 298 299 299 297 299 289 290 283 282 287 289 291 295 297 299 298 306 308 310
297 291 298 301 299 291 279 279 284 288 288 286 284 284 285 285 288 288 289 292 295 296 296 294 291 291 297 293 292 294 293 294 295 291 283 281 285 295 296 299 298 300 303 307 310
295 285 300 301 286 287 282 284 289 287 290 288 288 286 284 285 285 286 287 291 297 298 293 294 292 287 291 297 298 296 295 295 288 288 289 286 286 299 299 300 300 299 302 302 308
290 289 300 298 281 282 286 287 288 286 287 287 287 289 290 287 283 286 290 297 299 297 294 294 290 284 288 292 296 293 295 296 297 293 289 284 287 301 300 302 302 299 300 301 303
286 282 291 293 291 285 284 284 285 290 289 289 287 289 287 285 289 286 289 296 299 297 300 298 292 289 285 288 293 291 295 297 296 289 289 289 291 296 298 299 301 301 301 301 302
286 285 290 282 285 286 286 286 284 283 289 290 287 286 285 282 284 285 290 295 296 298 299 298 288 291 292 294 295 294 294 295 294 294 289 292 292 296 299 300 300 301 302 302 303
284 287 290 285 287 287 286 284 284 286 286 285 284 287 287 283 285 284 289 293 291 295 294 297 288 290 289 293 295 293 295 295 295 295 294 295 293 300 303 300 299 301 301 301 302
294 293 291 287 286 284 284 285 286 288 289 290 288 287 286 287 290 291 294 299 298 294 291 293 291 287 283 292 293 286 291 294 295 297 295 290 295 297 297 297 298 299 300 302 302

GFSSW_sfc_thetae_087.txt.gz
Theta_e
313 313 313 313 314 314 313 313 314 313 313 314 314 315 316 316 315 312 303 309 314 325 320 305 304 303 301 298 299 295 289 285 288 289 292 297 301 309 311 308 311 315 312 318 327
312 312 312 312 313 313 313 313 313 313 312 313 314 315 315 315 310 307 313 323 324 324 307 305 303 304 299 297 297 293 287 290 294 294 295 299 304 307 307 309 309 312 317 317 324
312 311 311 311 313 313 313 313 312 312 313 313 314 314 314 313 304 300 324 325 328 324 305 305 305 303 297 297 295 292 291 295 298 299 297 296 304 308 305 304 311 310 315 315 324
310 311 311 311 312 312 312 312 312 312 312 311 312 313 314 311 287 305 325 324 326 313 304 302 301 298 294 293 295 291 296 296 298 300 301 298 305 307 306 307 319 320 317 322 322
311 311 311 310 310 311 311 311 312 312 312 311 311 313 309 301 301 310 324 322 313 305 302 301 300 299 295 295 296 294 297 299 301 301 302 305 304 304 308 316 320 322 322 321 320
312 312 311 310 310 310 311 311 311 311 311 310 311 311 306 293 303 306 311 313 306 303 302 303 301 303 299 298 295 298 298 299 299 300 301 302 302 303 305 317 318 318 317 318 318
312 312 311 310 310 310 310 310 310 310 310 310 310 308 301 294 302 303 305 304 308 306 302 304 305 301 300 298 302 299 295 297 299 298 300 301 296 299 303 317 316 315 314 317 315
312 312 311 311 311 310 310 309 309 309 309 309 310 306 296 308 307 307 306 306 307 306 307 308 307 302 300 302 300 296 294 289 296 299 301 299 293 300 305 315 312 313 312 313 315
311 311 311 310 310 309 309 308 308 309 308 309 305 302 294 311 307 311 309 304 305 307 308 312 307 302 300 294 291 291 287 289 294 299 298 297 295 297 303 310 310 310 310 311 311
309 310 311 310 310 309 308 308 308 309 308 309 309 297 299 298 306 309 308 306 303 303 302 301 299 295 293 291 285 287 288 291 291 295 297 295 296 298 302 307 308 311 310 307 308
309 309 309 310 309 309 305 300 299 296 299 297 299 300 303 307 312 308 310 304 302 299 294 298 292 291 293 294 294 293 291 290 294 298 296 296 295 299 301 303 305 309 309 305 307
308 308 308 308 309 308 300 297 298 299 291 299 300 300 303 306 298 303 309 298 297 292 295 293 291 298 298 296 295 293 291 291 294 298 295 295 294 294 300 303 306 308 306 305 307
308 307 308 308 308 298 294 297 302 302 293 296 300 299 300 302 296 298 306 299 295 292 292 290 294 300 298 295 294 293 291 291 291 296 295 293 291 294 299 304 307 307 307 307 306
307 307 307 307 297 295 291 299 301 302 287 290 296 297 300 301 294 303 305 299 296 292 292 291 297 295 296 295 295 290 297 296 294 291 287 292 284 290 295 300 304 305 305 306 307
306 306 306 307 297 293 295 300 301 303 272 289 294 302 300 294 295 296 303 297 292 294 293 290 292 293 292 295 298 294 299 296 295 292 287 289 286 289 297 297 300 302 304 305 308
306 306 306 299 296 298 299 299 300 286 274 286 294 294 294 295 295 296 294 295 294 292 294 292 296 295 295 297 299 300 296 295 293 290 284 290 289 287 290 297 300 303 303 305 308
305 306 303 302 292 297 298 294 285 279 289 285 288 291 290 290 292 292 290 289 286 283 284 291 293 294 297 293 296 295 290 283 281 282 282 292 290 291 296 298 302 303 304 305 308
305 305 302 301 298 298 293 284 277 283 284 290 288 289 286 289 290 292 289 285 289 289 286 282 282 293 295 293 291 291 291 284 280 279 283 293 287 292 299 301 301 306 306 306 307
305 295 297 296 299 297 286 275 278 282 288 284 286 284 285 288 289 289 289 288 289 290 285 285 286 295 296 297 295 291 288 294 287 289 284 287 292 297 299 299 298 303 304 304 308
294 296 294 298 299 293 284 277 279 286 286 285 280 284 282 283 284 287 288 293 291 294 294 290 285 294 295 296 296 295 297 288 288 282 281 285 287 289 295 295 297 299 304 305 308
296 290 297 299 297 289 278 278 282 287 286 283 283 281 282 282 285 285 287 291 293 293 296 294 287 289 294 291 290 291 291 292 291 287 283 280 284 295 296 298 296 296 303 306 306
292 284 296 300 286 284 281 283 287 286 289 288 287 285 283 284 282 283 284 290 296 295 290 295 289 284 288 295 296 294 293 293 287 286 286 284 285 297 297 297 298 298 299 301 308
288 288 297 296 280 281 284 284 286 285 285 286 286 288 288 284 281 285 285 292 294 297 293 294 288 281 285 290 294 292 293 294 294 290 286 283 286 298 299 298 299 298 299 300 304
288 282 289 291 290 283 282 283 283 290 287 287 286 287 285 282 286 283 285 291 295 297 299 296 291 287 282 286 290 290 293 294 294 286 286 288 290 295 297 298 299 300 300 299 300
289 285 289 281 284 286 285 284 283 283 289 289 286 285 284 281 282 282 286 288 293 298 296 293 287 290 291 291 292 293 292 293 291 291 289 291 292 296 297 298 299 301 301 299 300
286 286 290 285 288 286 286 283 283 285 285 284 283 285 286 283 283 281 285 286 289 295 293 294 288 289 287 291 292 291 293 294 294 293 292 292 292 298 299 300 298 299 300 299 300
294 293 290 287 285 284 284 284 285 287 288 289 287 285 284 286 289 289 290 289 291 292 291 289 288 286 283 290 290 285 291 293 294 294 292 289 294 298 297 297 298 299 299 299 301

GFSSW_sfc_thetae_093.txt.gz
Theta_e
312 312 312 312 312 312 312 312 313 311 311 312 312 312 314 314 313 309 300 307 316 323 319 309 307 307 305 304 303 301 298 294 294 293 298 300 301 308 313 311 312 315 315 318 326
310 311 311 311 311 311 311 311 311 311 311 311 312 312 314 313 308 303 313 319 322 324 307 306 304 305 304 303 302 301 296 296 299 299 299 302 300 302 309 310 311 313 318 325 325
310 311 311 311 311 311 311 310 310 310 310 310 311 312 313 312 299 297 324 325 324 325 309 309 308 306 302 303 301 299 297 299 300 301 301 300 301 307 309 306 311 311 314 321 322
311 311 311 311 311 311 311 311 310 310 310 310 310 310 312 309 290 304 324 326 326 319 308 305 305 302 300 299 301 297 299 300 301 301 301 301 305 307 309 309 318 316 322 318 319
312 312 312 311 311 311 311 311 311 310 310 310 310 309 307 294 294 304 319 321 316 310 306 302 301 301 299 299 298 297 299 300 301 301 302 303 304 305 308 313 321 323 319 318 322
310 309 309 309 310 310 310 311 310 310 310 310 310 309 304 288 298 305 304 311 308 304 303 303 301 304 301 300 299 301 299 301 302 303 302 302 303 306 308 313 319 320 319 321 321
309 308 308 308 308 307 309 309 309 310 310 312 310 305 298 294 299 302 303 301 305 305 302 304 306 304 303 300 303 302 298 300 301 302 300 302 299 302 308 318 317 317 316 318 318
308 308 309 308 308 308 308 308 309 310 311 310 309 304 293 305 307 305 305 303 305 303 303 306 308 305 302 304 301 299 298 294 298 300 302 302 297 304 306 314 315 316 316 316 316
307 307 308 308 308 308 307 307 308 310 308 309 303 300 292 307 303 307 306 302 305 303 302 307 306 302 302 297 295 295 290 292 295 301 301 302 299 303 308 312 312 315 315 315 315
306 306 307 307 307 307 306 306 307 309 307 307 305 293 295 296 306 309 309 308 303 302 301 301 302 299 298 295 287 290 291 292 294 299 299 298 298 302 303 308 310 314 315 313 313
306 306 306 307 307 306 303 300 295 294 296 291 294 296 298 303 307 308 309 306 303 300 292 299 294 292 295 297 296 295 293 293 296 299 297 297 296 300 304 303 305 311 314 312 313
306 306 306 306 307 305 298 294 294 295 288 295 296 296 299 301 294 299 305 301 298 294 296 295 289 296 299 297 297 296 294 293 296 298 297 297 297 301 302 303 305 307 311 313 312
305 305 305 306 306 298 295 295 300 299 288 292 297 297 298 299 293 294 300 300 296 293 294 291 294 298 296 295 294 295 293 294 293 296 298 296 295 298 301 303 306 308 311 314 312
305 305 306 305 296 296 292 299 300 299 286 288 294 297 300 299 293 300 301 296 295 293 294 293 297 295 294 293 295 290 297 296 294 293 288 296 288 295 300 301 303 307 309 311 312
304 304 305 304 296 292 297 300 300 298 273 288 293 303 299 294 295 296 302 297 290 292 294 291 293 293 292 294 297 294 298 296 296 292 292 292 290 294 297 298 302 305 309 311 312
304 304 305 298 296 297 299 298 299 284 272 286 292 291 290 294 294 297 297 300 297 292 293 292 297 295 295 296 298 300 297 296 295 293 286 291 291 292 295 299 302 305 307 310 311
305 304 302 300 292 297 298 294 284 276 286 284 284 287 288 287 292 292 291 291 286 285 284 290 292 295 297 293 297 297 293 286 285 285 285 292 290 294 299 302 303 305 306 310 312
303 303 300 300 299 299 293 284 274 280 283 287 284 286 286 284 285 289 290 288 293 290 286 282 280 291 295 295 292 293 292 286 280 283 286 293 289 294 303 305 305 306 307 309 311
302 295 296 297 299 297 286 275 276 281 283 282 283 281 282 284 283 284 286 289 292 292 285 285 283 294 293 297 297 292 289 295 288 289 287 290 294 299 302 303 303 304 304 307 309
295 293 292 298 299 294 282 276 278 284 283 283 278 281 278 280 281 282 282 291 291 294 296 290 285 292 294 296 296 294 297 288 289 282 280 286 289 291 297 300 303 303 304 307 308
293 287 293 298 298 289 276 277 280 285 285 282 281 280 281 281 282 281 283 289 292 288 293 292 289 289 294 291 291 291 290 292 292 289 284 283 288 299 300 303 302 305 305 305 309
290 282 295 299 284 285 279 281 285 283 286 285 286 283 281 281 279 279 280 286 289 290 287 294 290 285 288 295 296 294 292 292 286 285 289 288 288 300 302 303 303 304 305 304 310
287 286 296 296 278 280 283 282 284 283 283 284 284 286 286 283 279 283 285 290 291 289 287 288 286 282 286 290 294 291 292 293 293 291 287 285 288 300 300 301 303 304 306 305 305
286 280 287 290 288 282 280 280 280 286 284 285 284 286 284 282 285 282 283 287 290 289 293 293 287 283 280 285 288 286 290 291 290 287 288 289 291 297 300 300 304 304 307 306 304
287 282 286 279 282 283 283 282 280 280 285 287 283 283 282 279 281 281 285 286 289 291 291 292 284 287 287 288 288 288 287 289 288 290 287 290 292 296 300 302 305 307 306 304 304
283 283 286 283 284 282 283 282 280 282 283 282 282 285 285 280 282 281 284 285 284 289 288 288 285 287 284 288 288 286 289 291 291 292 292 292 293 300 303 303 302 304 304 304 306
291 292 288 283 282 281 281 282 282 284 285 286 285 286 285 286 289 290 290 289 289 286 285 284 284 284 281 288 288 284 288 291 293 294 294 290 296 300 299 300 302 304 305 304 305

GFSSW_sfc_thetae_096.txt.gz
Theta_e
311 311 311 312 312 312 312 312 312 311 312 312 312 312 313 314 313 310 305 310 317 322 322 318 314 312 312 309 311 310 301 299 300 299 301 307 305 310 314 312 315 318 318 322 328
311 312 312 312 312 312 312 312 312 311 311 311 311 311 313 313 310 305 315 320 321 325 315 312 308 309 306 306 307 305 301 301 304 304 303 306 306 308 308 310 313 316 321 325 328
312 312 312 312 312 312 312 312 312 311 311 311 311 312 312 312 303 303 324 326 324 323 315 313 312 308 305 308 306 305 301 305 305 306 307 306 306 310 308 307 310 310 314 321 327
313 312 312 311 311 311 312 312 311 311 311 311 311 312 312 311 292 310 321 326 325 320 313 312 311 307 304 303 307 302 305 306 306 307 306 305 309 307 309 310 314 319 320 323 325
310 310 310 309 309 309 310 309 310 309 310 311 311 311 309 299 299 307 319 322 319 318 313 310 308 307 302 304 305 303 304 306 307 306 306 307 306 307 308 312 315 319 323 323 324
309 309 309 309 309 308 309 309 309 309 310 311 312 309 305 293 305 305 308 315 313 311 309 311 307 308 304 303 302 305 305 305 306 306 307 305 306 307 309 312 315 320 322 324 325
308 308 308 308 308 307 308 309 308 309 310 312 312 309 302 298 305 307 307 306 311 307 302 306 309 306 306 302 306 305 301 303 305 306 305 307 302 303 309 313 315 318 322 323 323
307 307 308 308 308 308 308 308 308 309 310 310 311 307 299 306 309 306 306 304 305 306 302 305 310 307 306 307 304 301 302 297 304 304 305 306 299 307 311 312 312 315 320 321 322
306 307 308 308 308 307 307 307 308 309 309 310 307 304 296 307 303 308 310 305 309 307 303 307 309 305 305 300 298 299 295 298 300 305 304 304 301 308 312 311 311 313 318 320 321
306 307 307 307 307 307 306 307 309 309 309 310 308 298 300 297 305 308 313 311 308 304 300 299 303 301 301 299 291 295 296 297 296 302 304 302 303 307 310 308 310 313 317 319 320
306 306 306 307 306 306 306 306 299 300 299 294 296 297 298 304 307 304 312 308 306 302 295 296 296 294 298 300 301 299 297 297 300 303 301 301 301 304 309 310 310 312 316 318 319
306 306 306 306 306 305 306 299 296 297 291 298 298 298 301 302 295 300 306 303 301 297 299 296 291 297 300 300 299 298 296 296 300 302 301 300 300 304 307 308 310 311 313 317 319
305 305 305 306 305 303 301 299 304 303 292 294 299 299 301 301 297 297 301 300 299 296 296 293 297 299 297 297 296 296 295 295 296 300 302 300 298 300 305 309 310 313 314 316 318
305 304 306 305 300 301 299 303 305 304 289 290 295 300 302 301 297 303 302 299 296 295 296 295 299 297 296 294 296 292 298 297 296 296 292 299 290 297 303 305 307 309 314 316 317
303 304 305 303 300 297 300 305 305 301 277 291 296 306 301 298 299 299 304 298 292 291 295 294 296 295 295 296 298 294 299 297 297 296 296 296 293 295 302 302 305 308 311 316 319
304 304 304 302 302 301 305 305 304 288 276 287 294 292 294 296 297 300 299 300 299 293 293 293 299 296 297 299 299 300 298 299 299 297 290 294 294 294 299 303 304 308 311 315 318
304 304 302 303 297 304 305 298 286 278 287 286 288 291 292 290 293 292 295 293 290 287 287 289 290 296 298 294 298 297 296 289 288 288 287 296 293 296 303 306 307 307 310 315 318
304 303 302 302 306 304 300 288 278 281 284 289 288 289 288 288 288 289 293 291 294 293 289 286 283 291 297 295 293 294 295 288 283 286 290 296 291 297 305 308 309 311 312 314 317
302 302 300 302 305 303 292 279 280 282 285 284 285 283 285 287 287 288 287 292 293 293 288 288 287 296 295 297 297 294 291 297 291 293 289 294 298 303 305 306 308 309 309 312 316
299 297 296 304 305 299 286 280 282 285 286 285 280 283 281 283 284 285 285 292 293 291 294 290 287 295 295 297 297 296 299 290 293 284 283 290 292 295 299 302 306 308 309 311 315
298 291 299 304 303 291 281 281 283 286 286 283 282 282 283 282 283 282 283 287 291 290 292 293 290 291 295 293 291 292 292 293 294 293 286 286 291 302 302 303 305 308 310 311 315
295 284 298 303 287 287 283 283 286 285 288 285 286 285 283 284 282 282 282 285 291 290 286 292 290 286 290 298 299 298 295 294 289 288 292 291 291 304 305 306 308 309 310 311 314
289 289 297 299 281 282 285 284 286 284 285 284 283 286 286 283 280 283 285 290 292 293 290 291 288 284 287 293 296 293 295 296 295 295 290 288 292 303 305 305 307 308 310 311 311
289 283 289 290 290 286 283 283 282 287 286 287 285 287 286 284 287 284 286 290 293 292 295 293 288 285 283 287 291 289 291 294 292 289 291 292 293 298 301 303 304 307 310 312 312
288 285 288 281 284 286 286 284 282 281 287 288 285 285 283 281 282 283 287 288 291 293 294 292 285 287 288 289 289 288 289 290 291 292 289 293 294 297 300 302 304 308 310 310 312
286 286 290 286 287 285 284 283 282 283 285 284 284 286 287 284 285 283 287 288 287 291 291 290 285 288 286 290 289 287 289 291 291 293 294 294 294 302 304 305 305 306 307 308 310
293 295 290 285 285 283 283 284 284 286 288 288 287 286 285 287 290 291 292 292 291 289 288 287 287 285 282 289 289 285 289 291 292 295 296 293 298 303 302 303 305 307 309 309 310

GFSSW_sfc_thetae_102.txt.gz
Theta_e
314 314 314 313 312 311 311 311 312 311 311 311 312 313 314 315 313 310 306 313 317 325 320 317 317 316 314 310 311 311 301 298 300 302 305 309 306 311 312 309 311 313 313 318 327
313 313 312 312 311 311 311 311 311 310 310 311 311 312 314 314 309 306 318 323 325 323 310 311 311 313 309 308 308 305 300 300 305 306 306 307 307 308 308 308 308 312 316 320 326
311 311 311 311 310 310 310 310 310 310 310 311 311 312 313 313 306 310 327 326 323 321 315 312 314 312 307 308 307 305 300 304 305 308 308 307 306 309 306 304 308 309 312 318 324
310 310 310 310 310 310 309 310 309 309 309 310 311 312 314 311 296 312 326 326 326 319 315 313 311 307 305 303 307 302 305 306 306 308 307 306 308 306 307 307 311 312 313 315 320
309 308 308 309 309 308 309 309 309 308 309 310 311 313 310 302 303 313 322 322 314 314 310 312 308 307 303 306 306 304 305 307 308 308 308 309 306 306 306 310 312 312 313 315 320
309 308 308 308 308 308 308 309 309 309 309 310 312 312 308 297 311 311 309 308 308 309 307 310 309 311 307 306 305 308 307 306 307 307 308 306 306 306 307 311 311 311 312 315 320
308 309 308 307 307 308 308 308 308 308 309 311 313 310 304 301 311 311 311 307 308 309 307 309 310 308 309 305 308 306 302 304 305 306 305 307 302 303 309 311 310 310 311 315 320
308 309 308 308 308 308 308 307 307 308 309 312 313 309 301 312 312 307 307 306 307 308 308 309 308 304 301 304 304 301 302 297 304 305 306 306 298 306 310 310 308 309 313 315 320
309 309 309 308 308 307 306 306 306 309 311 312 309 309 301 309 304 309 312 309 306 307 305 305 303 300 299 296 294 297 293 296 299 306 306 305 301 306 310 310 309 311 312 313 319
310 309 308 308 308 306 305 306 308 310 310 312 310 302 306 301 304 305 308 307 307 309 306 304 300 294 294 293 288 292 294 296 296 302 303 303 302 305 308 308 309 311 312 312 314
309 309 308 308 306 306 303 303 301 302 306 299 299 303 301 303 305 303 306 305 308 306 300 302 294 290 293 296 296 296 295 295 298 302 301 302 303 304 308 308 308 309 311 312 313
308 308 307 307 306 306 304 300 298 299 291 299 299 299 301 302 296 302 307 300 302 297 301 298 293 298 299 298 296 295 294 294 298 301 301 301 301 304 307 307 308 308 309 311 314
308 307 306 306 306 304 302 301 305 304 293 295 300 300 301 303 298 301 304 300 298 296 297 294 297 300 298 297 295 294 292 294 294 298 301 300 298 301 305 307 309 310 310 311 313
307 306 305 305 301 302 300 305 306 307 289 291 296 299 303 304 299 306 306 301 297 293 294 295 299 297 296 296 296 291 297 296 295 293 289 299 290 299 303 304 307 309 309 309 313
307 305 304 303 298 296 302 306 306 304 278 295 297 308 305 300 301 301 307 303 295 295 294 292 294 294 293 295 298 295 298 295 295 294 293 294 291 296 302 300 304 307 309 312 314
306 305 304 300 302 303 306 306 303 287 277 290 298 297 296 299 299 302 302 305 302 297 297 295 299 297 297 299 299 301 297 295 295 293 287 292 292 293 298 301 303 308 309 312 313
305 305 302 301 295 304 307 299 284 279 291 288 291 294 294 293 296 297 295 296 293 289 290 294 294 297 297 294 298 297 293 285 283 284 284 294 292 295 302 304 306 307 310 313 318
304 304 302 301 303 305 301 289 278 285 288 293 292 292 289 292 292 293 293 290 295 295 291 287 285 295 298 293 291 293 293 286 279 281 286 293 289 296 305 307 308 310 312 314 315
303 300 299 302 305 302 292 280 281 285 289 288 290 287 287 290 291 291 290 290 292 296 288 288 288 298 297 297 295 291 290 296 289 291 286 289 296 303 306 305 307 308 310 312 315
297 296 297 305 306 298 286 282 285 289 290 289 284 287 283 286 286 288 288 292 292 297 296 292 287 295 297 297 296 293 295 288 290 281 280 287 290 293 300 302 306 306 309 311 314
296 289 298 307 305 291 281 283 287 291 291 286 285 284 285 284 286 286 287 291 293 292 293 291 289 289 294 293 291 290 289 291 291 289 283 283 288 301 302 305 305 306 310 312 312
292 284 302 303 288 288 283 286 290 289 291 288 287 286 285 286 285 285 285 289 292 291 286 289 286 285 288 296 298 297 293 291 286 285 290 288 288 303 304 305 306 306 309 312 314
288 289 303 299 282 283 287 286 289 288 287 287 285 287 288 284 282 285 287 291 291 289 287 292 287 281 283 289 293 292 295 296 294 292 288 285 288 302 304 303 306 307 308 309 314
288 283 291 292 291 286 284 285 284 290 288 289 287 288 286 284 286 284 285 289 292 291 295 292 288 285 281 285 289 288 290 292 294 286 288 289 291 296 300 302 304 306 308 308 310
286 285 289 283 286 287 287 286 284 284 288 289 286 286 285 282 283 283 286 288 290 293 292 291 283 285 286 287 288 287 288 289 288 291 288 291 292 297 300 301 304 306 307 307 307
286 286 291 288 288 286 286 284 284 286 287 285 285 286 287 283 284 282 286 287 286 290 289 291 282 284 283 287 288 285 288 289 289 290 290 291 291 298 301 302 302 303 305 305 307
292 293 289 287 286 284 284 285 285 286 289 289 288 287 286 288 291 292 293 292 291 289 288 288 286 283 280 286 286 282 286 288 289 292 291 288 293 297 298 300 302 303 305 306 306

GFSSW_sfc_thetae_105.txt.gz
Theta_e
313 313 313 312 312 311 311 311 312 310 311 311 312 313 313 314 313 308 301 309 312 324 320 313 310 310 310 304 303 299 292 291 293 294 298 303 303 306 307 304 306 308 308 312 329
311 311 311 311 311 310 311 310 311 310 310 311 311 312 314 314 308 304 312 324 325 325 308 305 305 308 303 301 299 296 292 293 299 301 300 303 303 302 302 305 304 307 310 321 328
310 310 310 310 310 310 309 309 310 309 310 311 311 312 313 313 304 306 326 322 324 323 309 309 307 306 301 302 300 298 294 299 301 303 303 302 301 302 300 298 303 303 307 321 324
309 309 308 308 309 309 309 310 309 308 309 309 310 312 314 309 291 306 325 325 324 316 311 307 305 300 299 298 302 297 301 302 302 303 303 301 300 301 298 301 306 305 305 309 320
310 309 308 307 308 308 309 309 309 308 308 308 309 312 309 300 302 309 325 324 317 315 309 307 305 303 298 300 301 299 301 303 304 304 302 304 302 302 300 304 307 307 308 307 315
310 310 309 307 307 308 309 309 308 309 308 308 310 313 304 294 307 311 312 308 306 302 302 304 303 304 301 301 299 303 303 303 303 302 302 301 301 300 303 306 307 308 307 307 310
310 310 310 309 308 308 309 308 307 308 308 308 310 310 301 297 305 304 306 303 303 303 300 304 302 299 301 299 302 302 298 300 301 301 300 302 298 298 303 305 305 307 308 307 312
311 310 309 310 309 308 308 307 307 307 308 309 312 306 297 310 308 307 304 301 302 302 302 302 303 299 297 299 297 293 294 290 299 301 302 301 294 302 305 304 304 305 307 307 311
309 310 310 309 308 308 307 306 307 308 310 311 306 303 299 313 304 306 304 305 305 302 301 304 299 294 295 289 286 289 285 288 293 300 301 301 296 301 305 305 304 303 304 307 308
310 309 309 309 308 306 305 306 306 308 307 308 308 299 305 300 302 302 301 304 301 303 302 296 292 287 286 284 281 284 286 290 291 296 298 297 297 301 305 304 301 303 305 305 305
308 309 308 308 307 306 303 297 294 295 296 298 298 300 303 303 301 299 302 301 300 300 295 298 289 284 287 287 289 288 288 288 291 297 296 296 296 300 303 305 301 300 303 305 305
308 308 308 308 306 305 300 296 296 296 289 296 296 296 298 299 293 297 302 296 295 292 296 294 289 293 293 291 290 289 288 288 292 296 296 294 295 299 301 303 304 301 302 302 303
307 308 307 306 305 301 295 297 302 301 289 292 296 295 296 298 294 294 299 297 293 292 294 290 294 299 296 293 291 291 289 288 288 293 296 294 292 296 301 303 305 304 304 304 306
306 306 306 305 298 295 294 302 302 301 284 288 294 297 299 302 295 300 302 298 293 290 291 290 295 295 293 292 293 288 294 293 292 288 284 294 284 292 296 298 302 304 304 304 305
305 306 306 305 294 292 298 303 301 298 274 293 295 302 302 297 299 300 304 299 292 291 290 288 289 289 289 290 293 290 296 294 292 288 286 289 287 290 296 296 299 302 303 306 305
304 305 305 300 296 297 300 301 297 283 274 287 297 295 295 297 298 299 298 300 300 294 293 291 295 292 291 294 294 297 294 293 291 287 281 288 287 287 291 295 299 304 304 304 305
304 304 302 300 291 299 300 294 280 275 288 286 290 295 293 293 294 295 294 292 289 285 285 290 291 294 295 290 292 292 287 281 279 279 280 290 288 289 296 300 301 302 305 306 306
304 303 300 299 299 298 296 285 275 282 283 290 290 290 289 291 290 292 291 288 291 291 287 285 283 290 294 291 288 288 287 281 276 277 281 291 286 290 301 304 307 306 307 308 315
303 294 294 296 298 297 290 276 276 282 286 285 286 284 286 289 288 287 287 287 288 291 286 285 286 294 296 296 292 287 285 290 286 286 282 286 290 297 304 303 306 305 305 306 313
292 291 291 297 299 294 284 279 281 286 287 287 280 285 282 284 283 284 284 289 290 295 292 288 283 292 294 296 295 289 291 283 287 279 277 283 286 288 297 298 303 304 305 306 311
290 285 292 298 297 289 279 279 283 288 288 284 283 282 282 282 283 282 284 288 290 293 291 286 286 284 291 289 289 289 285 286 287 287 279 278 283 299 299 301 302 304 306 306 307
291 281 294 298 285 286 281 284 288 286 288 287 287 285 282 283 281 281 282 286 291 290 284 286 283 278 282 289 294 293 290 290 280 281 285 284 284 299 301 302 304 303 306 308 310
286 285 293 295 279 281 284 285 286 285 285 286 285 286 286 282 278 283 284 289 290 288 285 286 283 278 280 284 288 289 290 292 289 288 283 280 285 299 300 302 304 303 304 306 308
286 278 284 287 287 283 282 282 283 289 287 288 286 287 284 282 284 281 283 288 290 289 296 292 284 281 277 281 285 282 286 289 286 284 285 285 288 293 297 300 301 303 304 305 305
285 281 285 273 282 283 284 284 282 282 288 288 284 284 283 280 281 281 284 285 288 291 290 287 280 283 284 285 285 284 284 285 284 287 285 288 287 294 298 300 302 304 304 302 304
283 283 285 283 285 284 284 283 282 284 285 284 284 286 286 282 282 281 285 286 285 289 288 289 280 283 280 283 283 282 284 285 286 287 287 288 288 296 296 299 299 302 302 302 303
289 289 287 283 283 283 283 283 284 286 287 288 287 286 284 286 289 290 290 289 288 286 285 285 283 280 277 282 282 278 283 285 286 288 288 284 289 294 293 295 301 305 307 307 309

GFSSW_sfc_thetae_111.txt.gz
Theta_e
311 310 310 310 309 309 310 310 309 309 310 310 310 310 311 313 313 306 297 303 307 320 319 311 309 307 304 300 300 296 288 285 289 289 292 298 298 300 301 300 301 304 308 313 322
310 310 310 310 309 309 309 309 309 309 309 309 310 310 311 312 306 300 308 317 319 323 306 305 302 304 299 298 298 294 287 288 294 294 295 298 299 300 298 300 300 302 308 322 324
310 310 310 310 309 309 309 309 309 309 309 309 309 310 311 311 297 295 320 320 322 324 305 304 303 303 298 297 296 292 291 293 295 297 297 297 295 298 296 295 299 299 302 319 321
310 310 310 310 310 309 310 310 309 309 309 308 309 309 311 306 285 297 324 323 326 317 306 304 301 296 294 295 298 293 295 296 296 299 297 295 298 295 296 298 302 302 301 318 320
310 310 310 309 309 309 310 310 310 309 308 308 308 309 305 296 296 305 320 323 316 310 307 304 299 297 294 295 296 295 297 299 301 300 299 299 296 297 297 300 302 302 303 314 319
309 309 309 308 308 308 309 309 309 309 308 308 309 309 301 288 299 304 302 304 308 307 302 303 301 301 298 297 296 298 298 298 298 298 298 298 298 295 298 302 302 302 303 305 317
308 308 308 308 308 309 309 308 308 308 308 309 309 305 299 294 300 299 302 302 301 302 297 298 300 296 296 293 297 295 291 293 295 297 296 296 296 294 299 299 302 303 304 304 304
308 308 309 309 308 308 308 307 307 308 309 309 308 304 294 306 303 303 303 304 304 302 299 300 299 295 294 296 293 290 289 286 295 296 298 296 292 297 301 299 299 301 302 303 304
307 307 308 308 308 307 307 307 307 309 310 309 304 299 293 310 305 309 307 303 303 302 299 301 297 292 291 287 285 286 284 285 289 296 295 293 290 293 298 299 299 299 300 301 303
305 305 307 307 308 307 306 306 307 308 307 307 306 296 298 296 304 304 302 302 298 300 298 295 290 286 284 285 282 283 282 285 285 290 290 288 289 292 296 297 296 297 298 299 301
305 305 305 307 307 306 303 296 293 291 294 290 294 297 299 303 304 299 300 298 298 295 289 295 285 281 285 289 290 286 284 283 284 288 286 286 287 290 293 294 295 296 298 300 301
304 304 305 307 307 306 295 293 293 294 286 295 294 294 297 297 290 294 301 292 293 287 291 289 287 289 290 288 285 284 283 283 285 288 287 286 287 291 292 292 295 297 299 301 302
304 304 304 306 306 295 291 293 298 297 286 290 294 293 293 295 289 290 295 293 291 288 289 285 288 295 293 290 286 285 283 282 283 286 287 285 286 289 293 294 298 299 300 302 302
304 304 304 305 295 293 291 297 298 298 281 284 290 293 295 295 290 295 296 293 291 287 289 288 292 291 291 290 290 285 288 287 285 284 281 288 281 289 290 291 294 296 298 299 299
303 303 304 304 293 290 293 296 298 296 270 287 292 298 296 293 296 295 295 294 288 289 290 286 287 290 289 289 292 289 293 290 289 285 282 284 280 287 289 290 292 294 296 297 300
303 303 303 297 293 294 295 295 292 276 270 283 290 288 288 291 295 297 294 296 296 290 289 287 291 291 290 291 292 292 288 288 287 284 278 284 282 284 285 289 292 296 299 305 305
302 302 299 299 288 294 294 290 274 272 283 282 283 286 286 286 288 293 292 288 288 284 284 288 289 290 292 287 290 287 284 277 276 277 278 285 282 285 290 293 295 301 303 306 307
302 302 298 296 293 293 290 281 271 278 280 286 284 284 282 284 285 285 289 286 290 290 285 283 280 288 291 288 286 285 284 278 273 274 278 285 280 284 294 297 302 304 305 306 307
299 290 289 291 293 292 284 273 275 278 283 281 282 280 281 283 283 283 282 282 285 289 284 283 283 291 291 291 290 286 281 286 280 280 279 281 284 289 294 298 300 302 304 304 305
288 286 286 292 294 290 282 276 278 284 284 283 276 281 276 279 280 281 282 285 284 287 288 287 280 286 288 291 291 289 290 280 281 276 274 278 280 282 289 294 298 298 302 303 303
286 281 287 293 293 286 273 277 281 286 286 282 280 279 279 278 280 280 281 285 287 286 287 284 282 282 286 284 282 285 284 285 285 281 277 275 278 291 294 297 296 298 301 302 303
285 271 290 298 279 283 276 281 287 284 287 284 285 282 280 280 279 279 280 283 289 287 283 286 281 276 279 285 287 288 287 287 281 280 281 280 279 292 293 299 299 300 301 303 305
277 281 289 287 267 269 281 283 284 282 284 284 283 284 284 281 277 280 283 288 288 287 284 286 280 275 276 282 285 284 285 285 287 286 280 279 279 293 293 294 300 301 303 304 305
281 269 278 285 283 279 275 278 280 286 285 285 284 285 282 281 283 279 281 287 290 289 295 291 281 277 273 277 280 278 280 282 285 277 279 279 281 287 289 290 298 300 302 303 304
282 275 280 271 276 281 280 280 277 278 285 286 283 283 282 280 280 278 281 285 289 291 289 285 278 279 280 281 281 280 280 280 279 281 277 279 281 285 289 291 295 301 302 302 304
280 279 282 280 281 279 279 278 279 281 283 282 282 284 284 281 281 279 282 282 282 286 286 286 279 280 278 281 281 279 281 281 281 281 281 281 280 288 292 296 298 301 302 302 303
289 289 283 278 277 276 276 279 281 285 286 287 286 284 283 284 286 287 287 286 285 283 282 282 280 278 274 280 280 276 279 281 281 283 282 278 283 291 295 297 300 301 302 303 304

GFSSW_sfc_thetae_114.txt.gz
Theta_e
310 310 310 310 310 310 310 310 310 310 310 310 310 310 311 312 312 305 297 302 306 317 320 311 308 306 303 299 297 294 288 284 288 289 290 296 296 298 299 298 299 301 305 311 318
310 311 311 311 310 310 310 310 310 309 309 309 309 310 310 311 305 300 307 315 319 322 306 304 302 303 297 297 296 293 287 288 293 293 293 296 297 298 296 297 299 301 303 316 321
310 310 310 310 310 309 309 309 309 309 309 309 309 309 310 310 296 292 323 320 322 321 306 305 304 303 296 296 295 293 289 292 295 295 296 294 293 296 293 293 298 299 301 313 319
309 310 310 310 309 309 309 310 308 308 308 308 309 309 310 304 284 294 323 323 325 318 305 301 299 295 294 294 297 291 294 295 296 298 296 294 294 295 295 297 302 300 300 305 317
309 309 309 309 309 309 310 309 309 308 308 309 309 309 303 290 290 299 316 320 314 307 303 301 297 296 292 293 295 294 296 298 299 300 299 298 296 297 294 299 301 301 302 301 311
308 308 308 308 308 308 309 308 308 308 308 309 309 308 298 285 295 299 300 300 305 305 301 303 301 300 297 296 295 297 296 297 297 297 298 297 297 295 298 301 300 301 301 302 307
307 307 307 308 308 307 309 308 308 309 309 310 310 304 298 289 298 300 302 300 299 302 297 298 297 295 295 293 297 295 291 292 293 295 295 296 292 293 299 299 299 301 302 302 303
306 306 306 307 307 308 308 307 308 309 310 309 309 302 291 303 302 303 301 301 303 302 299 298 298 293 291 294 293 290 289 286 293 294 296 296 290 296 298 297 297 298 300 301 302
305 305 306 307 307 307 307 307 308 308 309 309 301 297 289 306 303 306 305 303 303 301 297 300 295 290 289 287 285 286 284 285 288 295 293 293 291 291 294 294 294 296 297 298 300
305 305 305 306 306 306 306 306 305 306 305 307 305 293 296 296 303 302 302 305 297 298 296 292 288 284 283 284 280 284 283 284 283 288 290 288 287 289 290 292 293 293 295 296 297
304 304 304 305 305 306 301 293 291 290 292 288 289 292 296 299 301 298 300 298 295 294 288 292 284 279 282 288 289 286 284 282 283 288 286 287 286 286 289 289 291 292 293 295 298
304 304 304 303 305 304 294 290 291 291 284 293 293 293 295 297 290 294 298 292 292 287 290 287 284 287 288 288 287 285 282 283 285 288 286 283 284 288 290 291 292 293 294 295 298
304 304 304 304 304 295 290 291 295 293 285 289 293 292 294 296 290 291 295 292 288 286 287 285 286 291 290 286 284 282 281 281 283 286 286 284 284 286 291 291 295 296 296 297 297
303 303 303 304 294 292 288 295 295 294 279 282 288 293 294 294 289 295 295 292 288 284 286 286 289 288 290 289 289 284 288 288 287 282 279 286 278 285 289 290 292 294 293 293 295
303 303 302 302 291 289 293 295 296 292 268 284 290 296 294 292 292 295 295 292 285 287 288 284 287 287 285 288 292 287 290 288 287 284 281 281 280 282 288 288 289 292 293 296 303
302 302 302 295 291 292 294 294 290 274 269 280 288 285 285 288 289 292 292 294 292 287 289 286 290 290 290 292 292 292 288 287 285 282 277 282 281 282 283 287 290 294 300 303 303
302 302 299 297 285 292 292 288 272 269 280 279 281 283 283 283 285 286 286 287 285 282 282 287 287 290 292 287 289 286 283 277 275 277 275 284 281 284 288 291 297 299 301 303 303
301 300 294 295 292 291 288 279 270 276 277 283 282 282 280 282 282 284 283 280 285 284 284 282 280 286 290 288 286 284 283 278 273 273 275 284 278 283 291 296 299 301 303 304 303
299 288 287 290 292 290 282 272 273 277 281 280 280 277 278 281 281 281 281 280 283 284 278 281 283 290 290 291 290 285 282 286 280 279 277 278 282 287 293 295 298 298 301 301 302
287 284 284 291 292 287 277 276 278 283 283 282 276 279 275 277 277 278 280 285 283 285 286 284 280 286 288 292 289 288 290 281 281 276 274 276 278 280 290 293 296 296 298 299 300
284 279 287 292 291 283 269 276 280 285 285 282 279 278 278 277 278 277 279 284 286 285 286 284 280 282 285 283 282 285 284 285 285 282 277 275 277 290 288 294 295 297 299 299 300
282 270 287 292 282 281 276 280 286 283 285 284 283 281 279 279 278 277 278 282 287 287 282 284 281 278 279 285 286 288 286 286 279 278 281 279 279 291 288 290 293 298 301 302 303
278 279 287 290 266 268 278 281 283 281 281 283 282 283 283 280 277 280 281 286 287 286 284 286 281 274 277 282 284 283 283 285 285 283 278 275 278 291 289 289 290 298 299 302 304
276 270 277 284 281 279 277 277 279 284 283 284 283 284 281 279 281 279 281 285 288 288 293 290 282 278 273 277 281 279 280 281 282 274 277 278 279 283 285 287 288 291 299 301 304
280 273 280 273 274 280 279 279 276 277 283 285 281 282 281 278 279 279 282 282 286 290 287 286 278 280 280 281 281 279 279 279 278 279 276 277 277 281 284 286 288 290 299 301 302
280 276 282 279 281 278 278 277 277 278 282 280 281 283 283 280 280 280 282 282 281 284 282 285 278 280 278 281 280 279 280 280 280 280 279 280 279 286 287 288 288 294 299 301 302
284 285 282 277 277 276 275 277 279 282 285 285 284 283 282 284 286 287 286 285 285 282 281 281 279 278 274 279 279 274 278 279 280 281 281 277 282 285 285 288 296 298 301 302 303

GFSSW_sfc_thetae_117.txt.gz
Theta_e
311 311 311 311 311 311 310 310 310 310 310 310 310 310 311 311 311 306 297 303 309 317 320 311 309 309 308 305 304 302 295 292 293 293 296 301 300 303 305 303 304 307 308 312 320
310 311 311 311 310 310 310 310 309 309 309 309 309 310 310 311 305 301 309 316 317 322 310 307 304 307 304 304 302 300 294 293 299 298 298 300 300 302 301 301 303 305 309 311 323
310 310 310 310 310 310 310 309 309 309 309 310 310 310 311 310 297 294 324 319 320 319 310 308 307 305 300 302 301 299 295 297 299 300 300 299 299 302 302 300 304 305 308 310 315
309 309 309 309 309 309 309 310 308 309 309 309 310 310 311 305 286 301 319 324 322 318 308 304 304 301 298 297 301 296 298 300 300 301 301 299 302 301 302 304 308 308 308 306 309
309 308 308 308 308 308 308 309 308 309 309 310 310 309 305 291 291 299 309 308 317 312 304 303 300 298 295 296 298 296 299 299 301 301 301 302 301 301 301 305 306 306 305 307 308
307 306 306 306 307 307 307 308 309 308 309 310 310 308 301 286 297 302 303 303 305 308 306 305 302 302 298 298 297 300 299 300 301 301 302 300 301 301 303 304 304 305 307 307 308
306 306 306 306 306 306 307 308 308 308 309 311 310 305 298 292 301 303 304 301 302 304 302 304 306 299 299 295 299 298 295 296 297 299 299 301 297 297 304 304 302 303 306 307 308
306 305 305 305 305 305 307 307 308 309 310 309 310 303 293 303 305 305 304 304 303 303 303 302 301 299 296 297 295 293 293 290 296 296 298 299 293 301 301 300 298 299 301 303 306
305 305 305 306 306 306 306 307 307 307 310 310 303 300 292 306 301 306 306 303 305 303 303 302 299 296 294 291 288 289 287 289 291 298 298 297 294 299 299 296 296 298 300 301 304
305 305 305 305 305 305 306 305 305 304 305 308 305 294 296 295 302 304 303 306 299 299 297 296 293 290 289 288 282 285 286 288 289 293 294 294 293 296 295 294 295 297 299 300 302
305 305 304 304 305 306 299 295 291 291 292 289 289 289 292 296 300 297 301 298 298 296 291 293 288 285 288 290 290 290 288 288 289 293 291 292 291 293 294 293 295 297 299 301 303
304 304 304 303 304 302 296 291 290 291 285 292 292 292 295 296 290 294 298 291 293 289 291 290 287 292 290 289 288 288 287 287 289 291 290 289 290 293 294 295 297 298 299 301 303
304 303 303 303 302 296 292 292 297 295 285 288 293 292 294 296 290 291 295 292 289 289 289 287 289 292 290 288 286 286 285 286 286 288 290 289 289 292 294 295 297 299 301 301 301
303 303 303 303 294 293 290 295 296 295 281 282 289 293 292 294 289 296 296 293 290 286 288 288 292 289 289 288 289 284 289 287 286 286 284 291 283 289 293 294 296 297 299 303 309
302 302 302 301 293 290 293 295 296 293 271 283 288 296 292 289 290 292 296 292 286 286 288 286 288 286 286 287 290 287 292 289 289 287 286 287 284 287 291 290 293 297 303 308 309
302 302 301 295 292 293 294 294 291 276 270 280 286 284 285 288 289 291 292 294 293 287 287 287 292 292 289 291 292 295 291 290 289 287 280 285 285 285 288 291 293 301 306 308 309
301 301 298 297 288 293 293 288 276 271 281 279 280 283 284 282 284 285 285 285 282 280 283 287 286 291 293 289 291 291 287 280 278 279 278 286 284 286 292 295 301 302 304 306 307
301 297 294 294 293 292 290 280 271 276 277 283 281 282 281 282 282 282 282 282 285 283 280 282 281 288 292 290 288 288 287 281 274 276 279 285 281 287 297 301 301 302 304 304 305
298 289 289 291 294 292 284 273 273 277 281 280 281 278 279 281 281 281 280 281 284 285 278 279 282 291 291 292 291 286 283 290 283 283 281 283 286 293 297 297 297 299 302 303 305
289 286 289 292 294 289 280 276 278 283 284 283 276 280 276 278 278 279 279 284 284 287 287 283 278 287 288 292 291 289 291 283 284 277 275 280 282 285 288 290 293 295 299 304 306
286 283 290 293 293 283 274 277 280 285 285 281 279 278 279 278 279 278 278 283 286 285 288 285 282 282 287 284 283 286 286 286 287 284 278 277 281 291 290 292 291 293 296 302 306
284 275 289 292 280 280 278 281 285 283 285 282 284 282 280 280 279 279 278 282 288 287 282 286 283 278 281 288 290 290 287 287 282 280 283 282 283 295 292 291 292 292 294 301 306
280 281 289 289 274 274 278 281 282 281 281 282 282 284 284 280 276 280 282 287 287 286 284 287 281 276 279 285 286 283 283 287 287 285 281 279 282 293 292 290 291 291 293 296 305
279 274 281 284 282 279 278 277 278 283 281 282 282 284 282 280 282 279 281 285 288 287 291 290 283 279 275 277 282 280 282 283 284 279 279 281 283 286 287 287 289 290 292 295 305
281 276 282 274 278 280 279 278 277 277 282 285 282 282 281 278 280 280 282 284 286 288 289 287 279 281 281 282 282 281 281 282 280 281 278 281 280 284 286 288 289 291 292 293 302
278 278 282 280 281 279 279 277 277 279 281 280 280 283 283 280 281 279 283 283 282 286 285 286 279 281 279 282 281 279 282 282 282 282 282 282 281 289 289 290 290 291 293 299 303
285 286 281 278 279 278 277 278 278 281 283 284 284 283 282 284 286 287 287 288 287 284 283 283 281 278 274 279 280 275 280 281 282 284 283 279 284 288 287 289 290 294 299 302 303

GFSSW_sfc_thetae_123.txt.gz
Theta_e
311 311 311 311 310 310 311 311 311 311 311 311 312 312 313 314 312 310 305 308 311 319 315 310 314 313 314 311 313 314 303 301 303 304 306 311 306 311 313 310 311 314 314 318 319
310 310 310 310 309 309 309 309 309 310 310 311 312 312 312 313 310 306 316 321 320 318 309 306 308 310 309 310 311 308 303 303 309 310 308 309 307 309 308 308 309 311 315 317 318
310 309 309 309 308 308 308 308 308 309 310 310 311 312 313 312 305 306 319 320 320 318 313 312 311 309 306 309 309 308 302 308 309 311 310 308 308 310 308 306 309 309 312 316 317
308 308 308 308 308 308 307 307 308 309 309 310 311 312 312 311 296 312 316 321 318 316 315 311 308 305 304 303 308 304 307 308 308 310 308 306 309 308 308 309 313 314 315 315 316
307 307 307 308 308 307 307 307 307 308 309 310 311 312 311 302 301 308 313 313 313 312 311 309 306 305 302 304 305 304 305 307 308 308 308 308 306 307 309 312 314 314 314 314 315
307 307 307 307 307 307 307 307 307 308 309 310 312 312 308 297 306 307 306 305 306 309 307 309 307 309 305 305 304 306 306 306 307 307 307 305 305 307 309 313 312 312 313 314 315
306 306 307 307 306 306 307 307 308 308 309 310 312 311 304 301 311 310 308 306 306 304 304 308 309 306 306 303 307 305 301 304 305 306 305 307 303 303 309 311 310 311 313 314 315
306 306 306 306 306 306 307 308 308 308 309 310 312 310 300 310 310 310 312 310 310 311 307 305 307 305 304 306 303 300 301 296 303 304 305 305 297 306 311 310 310 311 312 312 314
306 306 306 306 306 306 307 307 308 307 310 311 312 308 299 306 304 306 306 302 304 307 310 307 304 301 302 297 295 297 292 295 298 305 304 303 299 306 310 309 308 310 310 310 311
305 305 305 305 306 305 306 305 306 309 310 310 308 300 302 298 304 305 308 304 302 303 304 301 299 297 297 294 287 290 291 294 294 299 301 300 300 305 308 308 308 308 308 308 308
305 304 304 304 305 305 305 306 301 301 301 295 295 295 298 303 306 303 305 303 302 301 295 301 293 290 294 297 296 294 292 291 295 299 297 298 299 302 306 307 306 307 307 307 307
303 304 304 303 303 305 307 299 297 299 294 298 298 299 300 302 298 300 306 299 298 293 297 295 293 296 297 297 295 295 292 291 294 296 295 295 295 299 302 304 305 305 305 305 308
303 303 303 303 303 304 300 298 302 303 296 294 298 296 296 298 295 296 300 299 297 295 295 292 295 298 296 295 292 292 291 291 290 294 295 294 292 295 299 301 303 305 305 307 308
302 302 302 302 298 303 300 301 304 305 293 289 295 295 296 297 293 299 300 298 296 294 295 294 297 295 294 292 294 290 295 293 291 290 286 294 284 293 296 298 301 303 304 306 309
301 302 302 301 301 299 299 304 306 304 281 290 292 299 296 292 293 294 299 297 292 292 294 291 294 293 292 293 295 292 296 293 292 290 290 290 287 292 297 296 298 301 304 308 312
301 301 301 302 304 302 304 305 304 290 278 286 290 289 289 291 292 293 294 296 296 292 293 292 298 297 296 296 296 297 294 292 292 289 282 288 288 290 293 297 299 302 307 310 310
301 300 300 303 300 305 306 302 288 281 287 284 285 288 287 287 288 289 288 288 286 284 285 290 292 296 298 293 296 293 289 281 279 280 282 290 288 290 296 299 301 303 307 308 310
300 298 300 303 306 306 302 292 280 283 284 288 287 287 284 287 287 288 287 285 289 288 286 283 282 292 297 294 291 291 290 282 276 279 284 290 285 291 298 304 306 307 307 308 309
299 303 305 303 306 305 296 286 283 284 285 284 286 283 284 286 286 287 286 285 287 289 283 282 283 292 294 296 296 291 288 292 285 286 283 287 291 298 301 301 303 304 305 306 307
300 299 298 304 305 302 293 282 285 287 287 286 281 283 281 283 283 285 284 287 286 289 291 286 281 289 291 296 295 292 295 285 285 278 277 284 286 289 295 296 299 299 299 300 302
297 294 298 304 304 297 288 285 285 288 287 284 282 282 283 283 284 283 283 287 289 288 290 288 285 284 289 287 288 288 288 289 289 286 281 279 283 295 297 296 295 296 297 298 299
297 292 299 303 294 293 287 285 284 286 288 286 286 286 284 284 283 283 283 286 290 290 285 288 285 280 283 290 293 291 289 287 284 283 286 285 285 298 299 298 298 297 297 298 300
295 292 301 301 288 287 286 285 286 285 285 285 284 286 287 284 281 284 284 289 290 289 286 289 284 278 280 286 292 287 287 288 287 286 282 282 285 298 298 299 299 296 297 298 299
295 288 294 295 293 288 283 283 282 286 285 286 285 287 286 284 287 283 284 288 291 291 293 291 285 281 277 280 284 282 284 287 285 281 283 285 287 292 294 296 295 295 297 298 299
294 290 291 287 288 287 286 284 282 281 286 288 285 285 285 281 283 283 285 287 290 292 291 289 281 284 284 285 284 284 283 285 283 284 281 286 286 290 294 294 295 296 296 297 297
289 291 292 289 288 286 282 283 282 283 281 284 284 286 287 283 284 281 285 285 285 289 288 289 281 284 281 284 285 282 284 285 285 285 285 287 287 294 295 296 294 295 296 296 297
297 297 296 285 286 286 285 283 283 285 287 288 288 287 285 287 289 291 291 291 290 288 287 286 284 281 277 283 283 279 283 284 285 287 286 282 288 293 292 292 294 296 297 298 298

GFSSW_sfc_thetae_129.txt.gz
Theta_e
311 311 311 310 310 310 310 310 310 310 311 311 312 312 313 315 313 307 301 309 312 319 316 305 302 300 305 302 304 303 295 292 293 296 298 305 305 308 305 303 305 308 309 315 321
311 311 310 309 309 309 310 310 309 309 310 311 311 312 313 314 307 303 312 321 320 319 304 301 298 299 296 298 299 297 294 295 300 301 301 306 306 304 303 304 304 309 311 315 317
310 309 309 309 309 309 309 309 309 309 310 311 311 312 313 312 303 303 320 322 322 317 308 307 307 303 295 298 298 297 294 299 301 304 305 304 304 305 301 298 304 304 307 309 310
309 308 309 308 309 309 308 308 308 309 310 310 311 312 313 308 292 303 319 319 321 311 305 302 303 298 295 294 298 295 299 301 302 304 304 303 302 302 298 301 306 306 306 307 308
307 308 308 308 308 308 308 308 308 309 309 310 310 311 309 300 302 307 320 317 313 309 303 302 299 298 296 297 298 297 298 301 303 303 303 304 303 302 302 304 308 308 309 307 308
307 308 308 308 308 307 307 308 308 308 309 310 310 311 305 293 307 306 308 304 303 301 299 298 299 301 298 298 296 300 300 300 301 301 301 301 302 299 304 305 307 308 307 308 309
307 307 307 307 307 306 306 307 308 308 309 311 311 310 302 299 306 304 305 303 303 304 301 301 300 294 294 293 299 298 293 296 298 300 300 300 297 298 303 304 305 306 307 307 308
307 307 307 307 306 306 306 307 308 308 309 311 312 306 298 311 302 306 303 302 304 303 302 302 304 300 295 295 294 292 292 287 296 298 300 299 292 300 303 303 303 305 305 307 308
306 306 306 306 306 307 307 307 308 309 310 312 307 304 299 311 302 303 302 301 302 302 301 303 300 296 296 287 284 288 284 287 291 298 298 297 294 300 302 303 302 304 305 306 307
306 306 305 305 306 306 306 307 309 307 308 309 309 299 303 297 301 303 304 304 300 300 297 296 294 290 286 282 278 282 284 288 288 293 296 295 295 296 299 300 297 298 301 303 306
305 304 304 304 305 305 303 300 296 295 299 296 295 297 298 300 303 302 300 299 300 297 289 293 286 285 287 287 289 288 287 286 289 294 291 291 291 293 296 297 297 298 299 300 304
303 303 303 304 304 305 302 294 295 295 289 298 298 299 301 300 294 297 299 292 291 287 291 289 284 291 294 294 292 290 287 286 290 292 291 291 292 291 294 297 298 297 297 298 300
302 302 303 303 303 300 294 295 300 300 288 297 297 298 296 296 292 292 296 292 288 286 286 284 288 294 293 291 290 289 288 287 287 291 291 289 286 289 293 297 299 300 300 300 300
301 302 302 303 300 298 294 299 300 301 286 290 293 296 296 294 290 295 295 291 288 285 286 285 290 288 287 287 289 285 291 291 289 286 282 287 280 288 290 293 296 297 298 299 300
301 301 302 301 295 295 298 299 298 297 277 291 292 296 294 290 290 292 295 292 286 286 286 283 285 284 284 286 289 285 290 289 289 285 284 285 282 286 290 290 293 296 298 300 301
300 301 301 300 297 298 301 299 297 284 277 286 291 290 288 290 290 292 292 294 293 288 287 285 289 287 286 290 290 291 288 288 287 284 279 284 282 283 287 290 293 296 298 300 304
300 301 298 299 295 301 300 295 283 279 289 285 286 288 286 285 288 288 287 285 282 279 279 284 284 287 292 287 290 289 286 279 277 276 277 286 284 285 290 293 295 296 302 301 305
300 300 301 300 301 300 297 287 277 285 285 288 287 286 283 286 286 286 284 282 286 284 279 277 275 284 288 285 283 284 287 280 274 275 278 286 281 285 293 295 298 298 304 305 304
299 295 297 299 300 298 290 280 278 284 286 284 285 282 283 286 284 284 283 283 285 285 278 277 277 286 288 288 286 283 281 289 282 283 280 281 285 290 294 295 297 298 304 302 303
294 295 294 299 299 296 287 283 284 288 287 286 280 284 279 281 281 282 282 286 284 287 287 283 276 284 286 288 288 287 290 280 283 275 274 279 280 282 289 295 296 298 301 303 304
292 289 294 298 299 291 282 281 286 289 288 284 282 281 282 281 281 280 281 285 287 287 287 284 281 279 284 282 281 283 283 285 285 282 276 276 277 292 291 295 295 296 300 300 298
293 285 295 299 287 289 281 286 287 286 289 287 287 285 282 282 280 281 281 285 290 289 283 286 281 276 279 286 289 287 284 286 279 277 279 278 279 291 291 295 295 295 298 298 296
290 286 297 296 281 281 285 286 287 286 286 285 284 285 285 282 279 283 284 289 289 288 285 286 280 273 276 282 286 282 284 285 285 283 276 275 280 292 292 291 296 296 297 295 295
291 282 287 291 289 286 284 284 283 288 285 286 285 287 285 281 284 281 283 287 289 288 291 289 282 278 273 276 282 280 282 284 284 278 278 279 282 287 289 289 292 295 297 297 293
291 287 289 282 282 285 287 285 283 282 287 287 285 285 283 278 281 280 283 284 287 290 288 286 278 281 281 282 283 282 282 283 281 281 278 282 283 287 290 291 292 295 297 298 297
286 286 289 285 287 284 283 283 283 284 285 284 283 284 285 280 279 277 282 282 282 286 285 287 277 281 278 283 283 280 282 282 282 283 281 284 284 290 293 294 293 294 298 298 299
292 292 290 286 283 282 281 284 284 286 287 288 284 282 283 284 286 286 287 287 286 285 284 283 281 278 275 281 280 276 281 283 284 284 284 280 286 291 291 292 293 293 295 295 296

GFSSW_sfc_thetae_135.txt.gz
Theta_e
312 312 312 311 310 310 311 311 310 311 311 312 312 312 313 313 313 306 296 303 309 320 315 300 298 297 297 296 299 299 290 288 291 293 295 301 300 302 303 302 303 303 305 310 319
312 312 311 310 310 310 310 310 310 310 311 311 311 312 312 313 306 301 311 317 320 319 301 298 296 295 290 292 295 294 287 291 296 297 296 300 301 300 300 301 303 303 307 312 319
311 311 310 310 310 310 310 310 309 310 310 310 311 312 313 311 295 298 320 320 321 316 303 304 303 300 292 289 291 291 291 295 297 298 297 297 299 300 297 296 301 300 303 306 310
310 310 309 309 309 309 309 309 309 309 309 310 311 312 312 306 287 299 321 323 323 309 302 298 297 295 292 290 292 288 293 294 294 298 297 295 297 298 296 299 304 305 304 305 305
310 309 308 309 309 309 308 308 308 308 309 310 311 312 305 294 295 305 321 319 309 305 299 298 295 293 290 292 293 291 293 295 296 297 296 298 296 297 298 300 303 305 304 304 305
310 309 308 308 308 308 308 307 307 308 309 310 311 311 302 286 297 302 302 302 302 300 296 296 295 295 291 290 289 293 291 291 293 295 294 294 295 294 297 301 302 303 303 304 305
310 308 308 308 308 308 307 307 307 307 308 310 311 309 300 292 301 302 303 299 299 299 295 298 298 295 294 292 293 291 288 289 291 293 293 295 293 293 298 300 299 301 302 303 303
310 309 308 307 307 307 306 307 307 307 308 309 311 304 294 305 303 307 300 299 301 299 298 299 298 294 293 295 293 288 286 282 292 292 293 292 288 295 298 297 297 298 300 302 303
310 309 307 308 306 306 306 306 307 309 309 310 303 301 297 312 301 299 299 298 300 299 299 302 296 291 294 287 282 282 279 281 285 292 290 290 287 291 295 296 296 297 296 297 298
310 308 307 306 306 306 306 306 306 307 307 307 306 294 300 294 297 299 299 301 297 298 296 294 291 288 286 283 278 280 280 282 282 287 288 285 287 292 292 292 293 293 294 294 296
309 307 306 306 305 305 302 296 291 293 297 295 297 297 297 298 298 296 297 295 293 291 285 289 285 283 285 286 287 284 281 281 285 288 285 285 287 290 292 290 291 292 293 293 295
308 306 304 304 304 304 300 291 292 291 285 294 296 296 298 298 290 292 295 289 288 282 285 282 279 286 286 286 285 286 283 282 285 287 286 284 285 289 291 290 291 292 292 293 293
307 305 303 303 303 300 294 293 299 296 283 291 295 294 295 294 289 288 291 288 284 282 281 279 282 287 285 283 282 281 281 281 282 283 284 283 283 285 288 290 292 293 294 294 294
305 303 302 303 297 297 294 297 298 298 281 288 291 293 295 291 287 291 291 288 285 282 282 281 285 284 282 281 281 277 285 285 283 280 276 283 275 284 287 288 290 292 292 292 293
303 302 302 301 294 294 297 297 298 296 272 290 290 295 290 288 287 289 291 289 284 283 283 281 282 282 280 282 284 282 286 286 285 281 278 281 276 282 285 286 287 290 293 294 294
303 302 301 299 294 297 298 299 297 280 273 286 289 287 286 287 288 288 288 291 289 284 283 282 285 282 282 285 284 285 282 283 283 280 274 280 277 279 282 285 289 294 297 299 297
302 301 299 299 295 297 298 295 280 276 288 282 284 286 284 283 285 286 284 283 279 277 277 280 281 283 286 281 283 282 279 273 272 273 273 282 278 280 288 292 292 295 297 297 299
301 300 297 298 298 296 294 286 276 283 283 286 285 284 282 284 284 284 281 279 284 281 276 275 274 281 285 282 279 279 279 271 267 270 273 281 275 280 289 292 295 298 297 297 297
300 293 294 296 296 297 289 277 277 281 284 282 283 280 281 284 282 282 280 279 283 283 276 275 276 283 285 284 282 279 276 281 275 277 274 276 280 286 290 290 292 295 295 294 297
290 292 295 297 298 295 286 282 281 285 284 284 278 281 276 278 279 279 280 285 284 286 285 280 275 282 283 284 283 280 283 274 275 266 267 271 275 277 285 288 291 291 290 294 297
293 289 294 297 299 290 280 278 283 287 286 283 280 279 279 278 279 278 280 284 286 285 285 281 278 278 281 278 277 280 279 279 278 276 272 271 274 288 287 289 290 292 292 295 296
291 283 294 298 286 286 279 284 289 286 288 286 284 282 280 281 279 280 279 283 287 286 280 283 280 275 277 283 285 283 281 279 271 270 277 276 277 290 290 290 292 292 295 297 298
287 286 294 295 280 279 284 285 286 284 283 283 283 284 285 281 278 281 282 287 286 284 281 283 278 270 275 278 283 280 283 283 283 281 276 273 276 289 290 290 292 293 295 296 298
286 279 285 288 288 283 281 282 282 287 284 284 285 285 282 280 282 280 281 285 286 284 289 288 280 277 272 275 278 277 280 283 281 275 277 277 277 284 288 288 292 293 295 294 294
289 282 287 281 281 283 284 283 281 281 285 287 284 284 282 278 280 279 281 281 284 287 286 284 276 279 280 281 281 280 280 281 279 280 277 279 279 284 288 291 293 293 293 293 291
285 284 286 283 285 284 284 282 282 283 284 283 281 284 283 280 278 277 280 280 280 283 282 284 274 277 277 281 281 279 279 280 281 282 282 281 281 287 290 293 291 290 291 290 290
291 291 287 283 282 282 281 283 284 285 286 286 283 281 281 283 283 283 283 283 283 281 280 281 280 278 274 279 279 276 278 280 282 282 282 278 282 286 286 289 288 288 288 287 288

GFSSW_sfc_thetae_138.txt.gz
Theta_e
312 312 312 312 311 311 311 311 311 310 311 311 311 312 313 313 312 305 293 302 308 320 316 299 297 296 295 295 299 297 290 286 288 291 293 298 299 301 301 300 301 302 302 308 319
313 312 312 311 310 310 310 310 310 310 310 310 311 312 313 313 304 298 309 317 319 321 299 297 295 293 290 289 293 293 287 289 295 296 295 299 299 298 298 299 300 302 304 310 319
313 312 311 310 310 310 310 310 309 310 310 310 311 313 313 310 293 294 319 321 321 315 301 302 302 299 291 288 290 290 289 293 295 297 296 295 296 296 295 292 298 298 302 303 311
313 311 310 309 309 310 309 309 309 309 309 310 311 313 313 303 286 296 320 320 321 308 300 296 296 293 290 289 291 286 291 292 292 295 294 292 294 296 294 296 301 301 302 302 303
313 310 310 309 309 309 309 309 308 308 309 310 311 313 302 288 291 302 318 317 307 303 298 295 292 291 289 289 290 289 291 292 293 293 293 295 293 294 295 298 301 301 302 302 303
312 310 309 309 309 309 308 308 307 307 308 310 311 312 299 283 294 300 303 299 300 299 295 295 293 294 290 288 287 290 289 289 290 292 293 293 293 292 295 300 300 301 301 302 302
312 310 308 309 308 308 307 307 306 307 308 309 311 308 297 288 298 300 304 298 297 298 294 296 296 294 293 291 293 290 286 288 289 289 290 291 288 291 296 297 297 298 299 300 301
311 310 309 308 308 307 307 306 306 307 308 309 311 303 293 302 302 306 302 297 299 298 297 297 296 293 291 293 291 287 285 281 289 289 291 289 284 292 295 294 293 295 296 298 300
311 311 309 308 307 307 306 306 306 309 309 310 302 299 292 309 301 299 297 297 298 298 297 301 295 290 291 285 282 282 278 280 284 289 288 287 284 290 294 293 291 292 293 295 297
311 310 309 307 307 306 306 305 306 306 306 307 305 291 296 293 296 297 296 298 295 296 293 292 289 286 285 282 276 279 279 281 281 286 288 284 285 287 289 290 290 290 291 292 293
311 310 307 306 306 306 302 298 292 291 296 293 293 294 296 297 297 294 294 293 291 288 282 285 283 280 280 284 285 283 280 279 283 287 283 283 284 287 288 288 288 289 291 291 294
311 309 306 304 304 304 300 291 294 292 285 293 297 296 297 297 290 291 293 287 286 281 283 281 277 283 284 283 281 280 280 279 282 285 284 282 284 288 286 288 289 289 290 291 292
309 307 304 303 303 300 293 294 299 294 283 288 293 293 294 295 287 287 290 287 283 281 280 278 281 286 284 281 280 278 278 279 280 282 282 281 281 283 285 287 290 291 291 292 292
307 305 302 302 296 296 293 296 299 298 279 283 291 292 293 290 286 290 290 287 284 280 281 280 283 283 281 280 281 277 282 282 282 280 274 282 275 282 283 285 289 291 295 297 298
305 303 301 301 294 294 296 297 299 294 272 288 289 293 289 286 287 288 290 288 282 282 282 279 281 281 279 281 282 280 283 281 282 279 277 277 274 280 284 285 289 292 296 298 298
304 302 301 299 295 298 298 300 296 279 273 286 288 286 285 286 286 287 288 289 287 283 282 281 284 283 281 284 283 284 280 280 280 278 273 277 276 276 281 286 289 293 296 296 296
304 302 299 300 294 299 298 295 278 273 286 282 284 285 284 283 285 285 284 282 278 277 276 280 280 282 285 280 283 281 277 271 270 272 271 278 275 278 285 288 291 292 294 295 296
303 302 299 298 298 298 295 285 274 280 282 285 283 283 280 283 283 282 280 278 283 281 276 274 274 280 284 281 278 277 277 271 266 268 270 277 272 276 287 290 292 294 293 294 295
301 293 294 296 297 296 287 276 276 281 283 281 283 279 279 282 281 280 279 279 282 282 275 275 275 282 283 283 281 277 274 279 274 275 272 273 277 282 287 288 291 292 293 293 296
292 291 294 298 298 293 283 280 280 284 284 284 279 280 276 277 277 277 278 283 283 284 284 279 274 281 282 283 282 280 282 274 274 262 265 268 272 275 282 286 290 291 292 294 296
294 289 294 297 298 288 277 280 282 286 286 282 280 278 278 277 278 277 279 283 284 283 283 281 278 277 280 277 276 279 278 279 277 274 270 270 271 286 286 288 289 291 294 297 295
292 283 294 298 285 283 280 282 288 285 288 285 283 281 279 280 279 279 279 282 285 285 279 282 279 274 276 281 283 282 279 277 270 271 275 275 273 289 289 290 291 293 293 294 293
287 287 294 294 276 276 282 283 285 284 284 283 282 283 284 280 277 280 281 285 284 282 280 282 277 269 274 276 281 279 280 282 281 279 272 270 275 288 289 291 293 291 292 291 291
288 281 286 290 287 281 282 282 281 286 284 285 284 285 281 280 281 279 280 285 285 284 288 287 279 276 270 274 277 276 279 280 280 275 275 275 277 284 286 288 289 292 292 292 292
287 283 285 280 280 283 284 283 281 281 286 285 283 282 280 279 279 279 280 281 284 288 285 283 275 278 279 279 279 278 278 278 278 279 276 279 280 282 285 287 290 290 290 289 287
285 282 287 285 286 283 284 281 281 282 283 282 281 283 283 279 279 278 280 280 280 282 281 283 272 276 276 280 279 278 278 278 281 280 279 281 281 285 287 289 287 287 287 285 285
289 289 288 284 281 280 281 283 282 284 285 285 284 281 281 282 283 283 283 282 282 281 280 281 279 278 274 278 278 275 278 278 280 280 280 277 281 285 284 286 285 285 285 283 283

GFSSW_sfc_thetae_141.txt.gz
Theta_e
314 313 313 312 311 311 311 311 311 311 311 312 312 312 314 314 312 307 297 305 311 321 316 304 303 301 301 304 307 305 298 293 294 295 298 303 302 306 307 305 306 308 308 311 318
314 313 313 312 311 311 311 311 310 310 311 311 312 313 314 314 306 299 312 317 319 322 303 301 300 299 297 297 302 302 296 295 299 301 300 303 302 303 302 303 303 305 309 311 313
315 313 312 311 310 310 310 310 310 310 310 310 312 313 314 312 296 299 319 319 320 314 306 306 306 303 298 296 298 298 295 298 300 302 302 301 300 302 299 298 302 302 305 309 310
316 313 311 310 309 310 310 309 309 309 309 310 312 313 314 307 289 302 322 321 320 308 303 301 300 299 297 295 297 293 296 298 297 298 296 296 300 299 300 301 305 306 307 306 308
315 313 310 309 309 309 309 309 308 308 308 309 311 313 306 290 292 305 317 317 309 306 301 299 296 296 294 294 294 293 295 295 297 295 295 297 296 298 299 303 304 305 305 307 308
315 312 310 309 309 309 309 308 307 307 308 309 311 313 302 287 297 303 303 303 304 303 299 300 298 298 295 293 292 293 294 294 295 296 296 295 297 296 299 304 302 303 304 306 307
315 312 311 309 309 308 308 307 306 306 308 309 310 309 299 292 303 306 307 303 302 302 299 300 301 299 297 294 296 295 291 292 294 294 294 296 293 294 300 299 298 299 300 302 304
314 312 311 309 308 308 307 307 306 307 309 310 310 306 297 302 305 309 308 302 302 301 301 302 301 298 296 297 294 291 289 287 292 293 294 295 289 296 298 297 297 298 300 300 302
314 312 310 309 308 307 306 306 306 310 310 311 306 303 296 309 303 303 303 300 301 301 301 301 299 295 295 291 288 288 284 285 288 293 292 293 289 295 298 296 296 297 298 299 300
313 311 310 308 307 306 306 305 306 307 307 307 306 294 297 295 299 299 301 301 298 298 295 296 294 291 290 290 282 284 283 284 284 290 290 289 289 292 294 295 295 296 297 298 300
312 311 309 307 306 305 302 298 293 293 300 292 294 292 298 301 300 297 297 296 294 292 287 289 289 286 285 287 288 285 284 283 286 289 288 288 288 291 293 293 294 295 297 297 298
312 311 308 305 304 303 301 294 294 296 288 294 298 299 300 300 293 294 297 292 290 285 287 286 283 286 287 286 284 283 283 283 286 289 288 288 287 290 292 293 294 295 298 301 303
311 309 306 303 303 300 297 295 300 298 286 288 294 295 296 297 291 291 294 291 287 285 285 283 284 287 285 284 284 283 281 281 281 286 288 286 285 287 291 295 297 298 300 302 302
310 306 303 301 295 298 294 299 301 300 281 284 290 293 294 293 289 293 293 291 288 284 284 284 286 285 284 283 284 281 284 283 282 282 278 286 277 285 289 292 294 296 298 300 301
307 305 302 300 296 295 297 299 302 296 276 289 290 296 292 289 290 290 293 292 286 285 286 283 283 283 282 283 285 282 285 283 283 282 281 281 279 283 289 288 291 294 297 299 300
306 304 302 298 297 299 300 302 300 281 274 286 289 287 286 288 288 290 290 292 290 286 286 284 287 286 285 286 285 286 283 282 283 282 276 278 278 280 285 287 290 294 296 298 299
305 303 299 298 292 300 300 297 281 276 287 282 284 286 285 284 285 286 285 284 281 279 279 282 283 285 287 283 285 284 281 275 274 276 274 280 278 281 287 290 292 293 295 298 299
304 302 300 299 299 299 299 289 275 281 283 285 284 284 282 284 284 284 282 281 285 282 279 277 276 282 286 284 281 281 280 275 268 270 273 279 274 280 289 292 294 295 297 298 299
302 294 294 297 298 298 292 279 279 282 285 283 284 281 281 283 283 283 281 281 284 284 279 277 277 284 285 286 284 280 278 282 276 277 273 276 280 285 290 290 293 293 295 295 294
292 292 294 298 299 296 287 280 281 285 285 285 280 282 278 280 280 280 281 285 283 286 286 281 275 282 284 286 286 283 285 277 278 268 267 274 276 279 285 288 291 292 291 292 292
291 285 296 299 300 291 280 281 284 286 287 284 281 280 280 280 280 280 281 284 286 285 286 284 280 278 283 280 279 282 280 281 280 278 272 271 276 288 287 288 290 290 290 290 289
292 283 295 300 286 287 282 285 288 285 288 285 285 283 281 281 280 280 280 283 288 286 282 285 281 276 278 284 285 284 282 281 276 273 278 276 277 290 290 291 291 290 291 291 290
287 287 296 296 280 282 285 284 286 285 285 284 282 284 285 282 279 282 283 286 286 285 283 285 280 274 276 280 283 281 283 283 282 281 276 274 277 289 289 290 291 290 290 290 289
288 282 287 290 289 284 282 282 281 286 285 285 284 286 283 281 283 281 281 285 286 285 290 288 281 277 273 276 280 278 280 282 281 277 277 278 280 285 285 286 289 289 289 288 288
288 284 287 281 283 284 285 284 281 281 286 287 284 284 283 279 280 280 282 282 285 290 287 286 278 280 281 281 281 280 280 281 279 280 277 280 280 282 285 285 288 288 287 286 285
285 284 287 284 286 284 285 282 282 283 285 283 283 284 283 281 282 279 281 282 282 285 284 285 278 280 278 281 281 279 280 280 281 282 281 281 281 285 287 288 286 285 285 284 283
291 292 289 284 285 282 282 283 283 285 286 287 285 284 283 283 285 286 285 285 286 284 283 282 280 278 275 280 280 276 279 279 280 281 280 278 282 285 284 284 284 283 283 282 282

GFSSW_sfc_thetae_144.txt.gz
Theta_e
314 313 312 312 311 311 311 312 311 311 312 312 312 313 314 316 314 309 305 308 313 321 318 309 308 309 310 309 311 310 302 301 303 302 304 308 305 310 311 309 311 312 312 315 317
315 314 312 312 310 311 311 311 311 311 311 311 312 313 315 315 308 305 313 319 319 321 307 305 304 305 305 305 307 305 302 302 305 306 304 306 306 308 307 307 307 309 313 315 316
316 314 312 311 310 310 310 310 310 310 310 311 311 313 314 314 301 304 319 320 321 314 309 309 307 305 302 304 304 304 301 305 304 306 306 304 304 307 304 303 307 307 309 312 314
317 315 312 310 310 310 310 310 309 309 310 310 311 313 314 309 296 307 323 323 322 311 307 306 305 302 301 300 302 298 301 302 303 303 302 301 304 302 305 306 309 309 311 311 312
316 315 312 311 310 309 310 309 309 308 309 309 311 313 309 297 297 310 319 316 312 309 305 303 301 301 299 300 300 299 301 301 302 301 302 303 301 302 303 306 308 309 309 310 311
316 315 312 311 310 309 309 309 309 308 308 309 311 312 303 294 301 309 309 308 308 307 305 305 302 302 300 298 297 299 299 300 301 301 301 299 300 302 303 305 304 305 306 308 308
316 314 313 311 310 309 308 308 307 307 308 309 310 310 301 298 305 310 312 308 307 306 303 305 305 303 302 298 300 299 296 299 299 299 299 300 298 298 303 304 303 304 305 306 308
316 314 312 311 309 308 307 307 307 306 310 311 311 310 298 305 311 312 312 309 308 307 305 306 305 302 300 301 299 295 295 292 297 298 298 298 293 299 303 302 301 303 304 305 307
316 314 312 310 309 307 307 307 306 309 310 311 310 309 297 312 307 306 308 303 305 305 306 304 304 300 299 296 294 294 290 291 292 297 296 295 293 298 302 300 300 301 302 304 305
316 313 311 310 308 306 305 305 306 308 309 310 309 300 299 300 302 303 306 303 302 303 301 301 300 297 297 295 288 290 290 290 290 294 294 293 294 297 299 299 299 300 302 304 306
315 313 311 309 306 305 302 304 300 300 303 298 297 295 300 304 304 302 301 300 300 299 295 296 294 292 292 291 291 290 289 289 292 294 291 292 292 295 298 298 298 300 303 304 305
314 312 310 308 305 302 302 296 297 300 293 298 299 301 304 305 296 297 301 296 295 291 292 291 289 290 290 290 289 288 287 288 290 292 291 291 291 294 296 298 300 300 300 301 303
313 311 308 305 302 300 299 298 304 303 292 292 295 296 298 302 295 295 298 296 292 290 290 288 289 290 289 288 287 287 286 286 285 289 292 290 290 291 295 298 299 300 301 302 303
312 309 305 302 297 298 295 301 304 303 290 291 292 295 299 299 292 297 298 296 292 289 290 289 290 288 288 286 288 285 287 287 287 286 283 290 282 290 292 294 295 298 300 301 303
310 306 304 304 299 297 299 302 305 302 283 291 292 301 299 294 294 293 299 296 291 290 290 287 287 287 286 286 288 286 289 287 287 286 286 286 284 289 292 290 292 296 298 301 303
308 305 302 299 299 302 305 304 302 286 281 289 292 291 290 291 291 293 294 297 295 290 289 288 291 289 287 288 288 289 287 288 288 287 281 284 283 287 287 288 292 296 299 301 299
307 305 302 298 296 304 305 300 284 282 292 287 288 290 290 288 288 290 289 289 287 283 284 286 286 289 289 286 289 288 286 281 280 280 280 284 281 285 289 292 295 296 296 295 295
306 304 300 299 301 303 300 290 282 291 288 291 290 290 287 288 287 287 288 286 289 287 285 283 280 286 288 286 284 284 284 280 273 276 279 284 279 284 291 296 297 298 296 294 292
303 299 297 298 303 301 291 283 290 289 290 288 288 286 285 287 287 287 287 287 287 289 284 282 281 288 288 288 287 284 283 286 279 281 277 282 283 289 292 294 295 294 292 291 292
297 294 293 299 303 299 287 286 290 290 290 291 286 288 284 285 285 286 286 288 287 289 290 286 280 286 287 289 288 286 288 281 282 273 272 278 280 283 288 290 293 290 290 290 292
295 288 296 301 302 292 283 287 287 290 290 289 287 285 287 285 287 286 286 287 289 288 289 287 283 282 285 283 283 285 284 284 284 281 275 274 280 291 288 289 290 290 291 291 291
292 282 297 301 288 291 288 289 290 289 290 288 290 288 287 287 285 285 285 287 291 290 285 288 284 280 281 287 288 287 285 284 280 277 281 280 279 292 291 291 291 291 292 293 292
286 286 296 297 284 287 290 288 288 287 288 287 286 288 289 286 283 286 287 290 290 289 286 288 282 277 279 284 286 284 286 286 284 283 279 277 280 293 292 291 291 291 291 292 292
288 283 286 291 292 290 287 287 285 288 287 288 287 289 287 285 287 285 285 287 289 288 289 290 284 281 278 280 285 281 283 285 284 279 280 281 283 287 288 287 289 290 290 291 291
287 287 291 282 285 290 290 288 283 282 287 289 285 287 286 283 284 284 286 286 288 289 289 288 281 283 283 284 284 283 283 284 282 283 279 282 283 286 287 288 288 289 289 288 288
285 288 291 288 290 288 289 285 285 285 286 285 285 287 288 284 286 283 285 285 285 289 288 289 283 282 281 284 284 282 284 284 284 284 284 284 284 289 290 289 287 287 286 286 286
293 296 291 288 288 286 287 287 286 288 287 290 290 287 286 287 290 291 291 290 290 288 287 287 285 282 278 283 282 279 283 283 283 284 283 280 285 288 287 286 285 285 286 284 284